Time,TemperatureF,DewpointF,PressureIn,WindDirection,WindDirectionDegrees,WindSpeedMPH,WindSpeedGustMPH,Humidity,HourlyPrecipIn,Conditions,Clouds,dailyrainin,SoftwareType,DateUTC
2013-10-10 00:00:00,52.3,45.3,30.39,NNW,344,0.0,2.0,77,0.00,,,0.00,WeatherCatV1.21B27,2013-10-10 04:00:00,
2013-10-10 00:01:00,52.3,45.3,30.39,NNW,344,0.0,2.0,77,0.00,,,0.00,WeatherCatV1.21B27,2013-10-10 04:01:00,
2013-10-10 00:02:00,52.2,45.2,30.39,North,10,0.0,1.0,77,0.00,,,0.00,WeatherCatV1.21B27,2013-10-10 04:02:00,
2013-10-10 00:06:00,52.1,45.1,30.39,NNW,330,0.0,2.0,77,0.00,,,0.00,WeatherCatV1.21B27,2013-10-10 04:06:00,
2013-10-10 00:07:00,52.0,45.0,30.39,NNW,344,1.0,3.0,77,0.00,,,0.00,WeatherCatV1.21B27,2013-10-10 04:07:00,
2013-10-10 00:11:00,52.0,45.3,30.39,NNW,344,1.0,3.0,78,0.00,,,0.00,WeatherCatV1.21B27,2013-10-10 04:11:00,
2013-10-10 00:12:00,51.9,45.3,30.38,NNE,25,2.0,2.0,78,0.00,,,0.00,WeatherCatV1.21B27,2013-10-10 04:12:00,
2013-10-10 00:13:00,51.9,45.3,30.38,North,349,1.0,2.0,78,0.00,,,0.00,WeatherCatV1.21B27,2013-10-10 04:13:00,
2013-10-10 00:16:00,51.8,45.2,30.38,NW,307,1.0,2.0,78,0.00,,,0.00,WeatherCatV1.21B27,2013-10-10 04:16:00,
2013-10-10 00:17:00,51.8,45.2,30.38,North,0,2.0,2.0,78,0.00,,,0.00,WeatherCatV1.21B27,2013-10-10 04:17:00,
2013-10-10 00:18:00,51.8,45.2,30.38,NNW,345,2.0,2.0,78,0.00,,,0.00,WeatherCatV1.21B27,2013-10-10 04:18:00,
2013-10-10 00:21:00,51.7,45.4,30.38,NNW,328,0.0,2.0,79,0.00,,,0.00,WeatherCatV1.21B27,2013-10-10 04:21:00,
2013-10-10 00:22:00,51.7,45.4,30.38,NNW,339,2.0,3.0,79,0.00,,,0.00,WeatherCatV1.21B27,2013-10-10 04:22:00,
2013-10-10 00:23:00,51.7,45.4,30.38,NW,322,1.0,3.0,79,0.00,,,0.00,WeatherCatV1.21B27,2013-10-10 04:23:00,
2013-10-10 00:26:00,49.9,45.6,30.38,East,98,0.0,5.0,85,0.00,,,0.00,WeatherCatV1.21B27,2013-10-10 04:26:00,
2013-10-10 00:27:00,49.9,45.6,30.38,East,98,0.0,1.0,85,0.00,,,0.00,WeatherCatV1.21B27,2013-10-10 04:27:00,
2013-10-10 00:29:00,49.8,45.8,30.38,East,98,1.0,2.0,86,0.00,,,0.00,WeatherCatV1.21B27,2013-10-10 04:29:00,
2013-10-10 00:31:00,49.8,45.5,30.38,East,98,2.0,4.0,85,0.00,,,0.00,WeatherCatV1.21B27,2013-10-10 04:31:00,
2013-10-10 00:32:00,49.9,45.6,30.38,East,98,2.0,4.0,85,0.00,,,0.00,WeatherCatV1.21B27,2013-10-10 04:32:00,
2013-10-10 00:33:00,49.9,45.6,30.38,East,98,2.0,4.0,85,0.00,,,0.00,WeatherCatV1.21B27,2013-10-10 04:33:00,
2013-10-10 00:34:00,50.0,45.7,30.38,East,98,0.0,5.0,85,0.00,,,0.00,WeatherCatV1.21B27,2013-10-10 04:34:00,
2013-10-10 00:36:00,50.0,46.0,30.38,East,98,1.0,6.0,86,0.00,,,0.00,WeatherCatV1.21B27,2013-10-10 04:36:00,
2013-10-10 00:37:00,50.0,46.0,30.38,East,98,0.0,6.0,86,0.00,,,0.00,WeatherCatV1.21B27,2013-10-10 04:37:00,
2013-10-10 00:38:00,50.0,46.0,30.38,East,98,0.0,0.0,86,0.00,,,0.00,WeatherCatV1.21B27,2013-10-10 04:38:00,
2013-10-10 00:40:00,50.0,46.9,30.38,East,98,0.0,4.0,89,0.00,,,0.00,WeatherCatV1.21B27,2013-10-10 04:40:00,
2013-10-10 00:41:00,50.0,46.0,30.38,East,98,1.0,4.0,86,0.00,,,0.00,WeatherCatV1.21B27,2013-10-10 04:41:00,
2013-10-10 00:42:00,50.1,45.8,30.38,East,98,0.0,4.0,85,0.00,,,0.00,WeatherCatV1.21B27,2013-10-10 04:42:00,
2013-10-10 00:43:00,50.2,46.2,30.38,East,101,1.0,4.0,86,0.00,,,0.00,WeatherCatV1.21B27,2013-10-10 04:43:00,
2013-10-10 00:45:00,50.2,46.2,30.38,ESE,102,4.0,4.0,86,0.00,,,0.00,WeatherCatV1.21B27,2013-10-10 04:45:00,
2013-10-10 00:46:00,50.2,45.9,30.38,ESE,102,0.0,4.0,85,0.00,,,0.00,WeatherCatV1.21B27,2013-10-10 04:46:00,
2013-10-10 00:47:00,50.2,45.9,30.38,ESE,105,2.0,5.0,85,0.00,,,0.00,WeatherCatV1.21B27,2013-10-10 04:47:00,
2013-10-10 00:48:00,50.2,45.9,30.38,ESE,105,2.0,5.0,85,0.00,,,0.00,WeatherCatV1.21B27,2013-10-10 04:48:00,
2013-10-10 00:50:00,50.2,46.2,30.38,ESE,105,2.0,4.0,86,0.00,,,0.00,WeatherCatV1.21B27,2013-10-10 04:50:00,
2013-10-10 00:51:00,50.2,46.2,30.38,ESE,105,1.0,4.0,86,0.00,,,0.00,WeatherCatV1.21B27,2013-10-10 04:51:00,
2013-10-10 00:52:00,50.2,46.2,30.38,ESE,105,0.0,4.0,86,0.00,,,0.00,WeatherCatV1.21B27,2013-10-10 04:52:00,
2013-10-10 00:53:00,50.2,46.2,30.38,ESE,105,2.0,4.0,86,0.00,,,0.00,WeatherCatV1.21B27,2013-10-10 04:53:00,
2013-10-10 00:54:00,50.2,46.2,30.37,ESE,105,1.0,2.0,86,0.00,,,0.00,WeatherCatV1.21B27,2013-10-10 04:54:00,
2013-10-10 00:55:00,50.1,46.1,30.37,ESE,105,1.0,4.0,86,0.00,,,0.00,WeatherCatV1.21B27,2013-10-10 04:55:00,
2013-10-10 00:57:00,50.1,46.1,30.37,ESE,105,2.0,2.0,86,0.00,,,0.00,WeatherCatV1.21B27,2013-10-10 04:57:00,
2013-10-10 00:58:00,50.1,46.1,30.37,ESE,105,0.0,2.0,86,0.00,,,0.00,WeatherCatV1.21B27,2013-10-10 04:58:00,
2013-10-10 00:59:00,50.1,46.1,30.37,ESE,105,0.0,2.0,86,0.00,,,0.00,WeatherCatV1.21B27,2013-10-10 04:59:00,
2013-10-10 01:00:00,50.0,46.0,30.37,ESE,105,2.0,2.0,86,0.00,,,0.00,WeatherCatV1.21B27,2013-10-10 05:00:00,
2013-10-10 01:02:00,50.0,46.0,30.37,ESE,106,4.0,5.0,86,0.00,,,0.00,WeatherCatV1.21B27,2013-10-10 05:02:00,
2013-10-10 01:03:00,50.0,46.0,30.37,ESE,106,2.0,5.0,86,0.00,,,0.00,WeatherCatV1.21B27,2013-10-10 05:03:00,
2013-10-10 01:04:00,50.1,46.1,30.37,ESE,109,2.0,6.0,86,0.00,,,0.00,WeatherCatV1.21B27,2013-10-10 05:04:00,
2013-10-10 01:06:00,50.2,46.2,30.37,ESE,109,2.0,6.0,86,0.00,,,0.00,WeatherCatV1.21B27,2013-10-10 05:06:00,
2013-10-10 01:07:00,50.2,46.2,30.37,ESE,109,0.0,4.0,86,0.00,,,0.00,WeatherCatV1.21B27,2013-10-10 05:07:00,
2013-10-10 01:08:00,50.2,46.2,30.37,ESE,109,1.0,2.0,86,0.00,,,0.00,WeatherCatV1.21B27,2013-10-10 05:08:00,
2013-10-10 01:09:00,50.3,46.6,30.37,ESE,114,0.0,4.0,87,0.00,,,0.00,WeatherCatV1.21B27,2013-10-10 05:09:00,
2013-10-10 01:11:00,50.3,46.6,30.37,ESE,116,5.0,5.0,87,0.00,,,0.00,WeatherCatV1.21B27,2013-10-10 05:11:00,
2013-10-10 01:12:00,50.4,46.7,30.37,ESE,115,4.0,6.0,87,0.00,,,0.00,WeatherCatV1.21B27,2013-10-10 05:12:00,
2013-10-10 01:13:00,50.5,46.8,30.37,ESE,113,4.0,6.0,87,0.00,,,0.00,WeatherCatV1.21B27,2013-10-10 05:13:00,
2013-10-10 01:15:00,50.7,47.0,30.37,ESE,113,2.0,5.0,87,0.00,,,0.00,WeatherCatV1.21B27,2013-10-10 05:15:00,
2013-10-10 01:16:00,50.9,47.2,30.37,ESE,113,0.0,2.0,87,0.00,,,0.00,WeatherCatV1.21B27,2013-10-10 05:16:00,
2013-10-10 01:17:00,50.9,47.2,30.37,ESE,113,0.0,2.0,87,0.00,,,0.00,WeatherCatV1.21B27,2013-10-10 05:17:00,
2013-10-10 01:18:00,51.0,47.0,30.37,ESE,114,1.0,5.0,86,0.00,,,0.00,WeatherCatV1.21B27,2013-10-10 05:18:00,
2013-10-10 01:20:00,51.2,47.2,30.37,ESE,117,0.0,6.0,86,0.00,,,0.00,WeatherCatV1.21B27,2013-10-10 05:20:00,
2013-10-10 01:22:00,51.3,46.9,30.37,ESE,117,0.0,1.0,85,0.00,,,0.00,WeatherCatV1.21B27,2013-10-10 05:22:00,
2013-10-10 01:23:00,51.4,47.3,30.37,ESE,117,0.0,1.0,86,0.00,,,0.00,WeatherCatV1.21B27,2013-10-10 05:23:00,
2013-10-10 01:24:00,51.4,47.0,30.37,East,101,0.0,5.0,85,0.00,,,0.00,WeatherCatV1.21B27,2013-10-10 05:24:00,
2013-10-10 01:25:00,51.5,47.5,30.38,East,101,0.0,5.0,86,0.00,,,0.00,WeatherCatV1.21B27,2013-10-10 05:25:00,
2013-10-10 01:27:00,51.5,47.5,30.37,ESE,110,5.0,5.0,86,0.00,,,0.00,WeatherCatV1.21B27,2013-10-10 05:27:00,
2013-10-10 01:28:00,51.5,47.5,30.37,ESE,110,0.0,5.0,86,0.00,,,0.00,WeatherCatV1.21B27,2013-10-10 05:28:00,
2013-10-10 01:30:00,51.5,47.5,30.38,ESE,110,1.0,5.0,86,0.00,,,0.00,WeatherCatV1.21B27,2013-10-10 05:30:00,
2013-10-10 01:32:00,51.5,47.5,30.37,ESE,110,0.0,2.0,86,0.00,,,0.00,WeatherCatV1.21B27,2013-10-10 05:32:00,
2013-10-10 01:33:00,51.5,47.5,30.37,ESE,110,1.0,5.0,86,0.00,,,0.00,WeatherCatV1.21B27,2013-10-10 05:33:00,
2013-10-10 01:35:00,51.7,47.7,30.38,SE,130,2.0,5.0,86,0.00,,,0.00,WeatherCatV1.21B27,2013-10-10 05:35:00,
2013-10-10 01:37:00,51.8,47.8,30.37,SE,129,0.0,5.0,86,0.00,,,0.00,WeatherCatV1.21B27,2013-10-10 05:37:00,
2013-10-10 01:38:00,51.8,47.8,30.37,SE,124,0.0,4.0,86,0.00,,,0.00,WeatherCatV1.21B27,2013-10-10 05:38:00,
2013-10-10 01:40:00,51.8,47.4,30.37,ESE,111,2.0,4.0,85,0.00,,,0.00,WeatherCatV1.21B27,2013-10-10 05:40:00,
2013-10-10 01:43:00,51.9,47.5,30.37,ESE,111,0.0,4.0,85,0.00,,,0.00,WeatherCatV1.21B27,2013-10-10 05:43:00,
2013-10-10 01:44:00,51.9,47.8,30.37,ESE,111,0.0,2.0,86,0.00,,,0.00,WeatherCatV1.21B27,2013-10-10 05:44:00,
2013-10-10 01:45:00,51.9,47.8,30.37,ESE,111,1.0,1.0,86,0.00,,,0.00,WeatherCatV1.21B27,2013-10-10 05:45:00,
2013-10-10 01:46:00,51.9,47.8,30.37,ESE,111,0.0,1.0,86,0.00,,,0.00,WeatherCatV1.21B27,2013-10-10 05:46:00,
2013-10-10 01:48:00,51.9,48.2,30.37,ESE,111,1.0,4.0,87,0.00,,,0.00,WeatherCatV1.21B27,2013-10-10 05:48:00,
2013-10-10 01:49:00,51.9,47.8,30.37,ESE,111,0.0,6.0,86,0.00,,,0.00,WeatherCatV1.21B27,2013-10-10 05:49:00,
2013-10-10 01:50:00,51.9,47.8,30.37,ESE,119,4.0,5.0,86,0.00,,,0.00,WeatherCatV1.21B27,2013-10-10 05:50:00,
2013-10-10 01:53:00,52.0,47.9,30.37,ESE,119,1.0,1.0,86,0.00,,,0.00,WeatherCatV1.21B27,2013-10-10 05:53:00,
2013-10-10 01:54:00,52.0,47.9,30.37,ESE,109,1.0,5.0,86,0.00,,,0.00,WeatherCatV1.21B27,2013-10-10 05:54:00,
2013-10-10 01:55:00,52.0,47.9,30.37,East,96,1.0,5.0,86,0.00,,,0.00,WeatherCatV1.21B27,2013-10-10 05:55:00,
2013-10-10 01:56:00,52.0,47.9,30.37,East,96,1.0,5.0,86,0.00,,,0.00,WeatherCatV1.21B27,2013-10-10 05:56:00,
2013-10-10 01:58:00,52.1,47.7,30.37,East,98,0.0,5.0,85,0.00,,,0.00,WeatherCatV1.21B27,2013-10-10 05:58:00,
2013-10-10 01:59:00,52.2,48.1,30.37,East,98,0.0,2.0,86,0.00,,,0.00,WeatherCatV1.21B27,2013-10-10 05:59:00,
2013-10-10 02:01:00,52.2,48.1,30.37,ESE,110,1.0,5.0,86,0.00,,,0.00,WeatherCatV1.21B27,2013-10-10 06:01:00,
2013-10-10 02:03:00,52.3,48.2,30.37,ESE,110,0.0,1.0,86,0.00,,,0.00,WeatherCatV1.21B27,2013-10-10 06:03:00,
2013-10-10 02:04:00,52.3,48.2,30.37,ESE,110,0.0,4.0,86,0.00,,,0.00,WeatherCatV1.21B27,2013-10-10 06:04:00,
2013-10-10 02:05:00,52.3,47.9,30.37,ESE,110,0.0,4.0,85,0.00,,,0.00,WeatherCatV1.21B27,2013-10-10 06:05:00,
2013-10-10 02:06:00,52.3,47.9,30.37,ESE,110,4.0,4.0,85,0.00,,,0.00,WeatherCatV1.21B27,2013-10-10 06:06:00,
2013-10-10 02:08:00,52.3,47.9,30.37,East,88,1.0,4.0,85,0.00,,,0.00,WeatherCatV1.21B27,2013-10-10 06:08:00,
2013-10-10 02:09:00,52.3,47.9,30.37,East,88,0.0,3.0,85,0.00,,,0.00,WeatherCatV1.21B27,2013-10-10 06:09:00,
2013-10-10 02:10:00,52.3,47.9,30.37,East,95,5.0,5.0,85,0.00,,,0.00,WeatherCatV1.21B27,2013-10-10 06:10:00,
2013-10-10 02:11:00,52.4,48.0,30.37,ESE,109,0.0,6.0,85,0.00,,,0.00,WeatherCatV1.21B27,2013-10-10 06:11:00,
2013-10-10 02:12:00,52.4,48.0,30.37,ESE,109,0.0,6.0,85,0.00,,,0.00,WeatherCatV1.21B27,2013-10-10 06:12:00,
2013-10-10 02:13:00,52.4,48.3,30.37,ESE,109,0.0,1.0,86,0.00,,,0.00,WeatherCatV1.21B27,2013-10-10 06:13:00,
2013-10-10 02:14:00,52.5,48.1,30.37,ESE,109,1.0,2.0,85,0.00,,,0.00,WeatherCatV1.21B27,2013-10-10 06:14:00,
2013-10-10 02:15:00,52.4,48.0,30.36,ESE,109,1.0,2.0,85,0.00,,,0.00,WeatherCatV1.21B27,2013-10-10 06:15:00,
2013-10-10 02:16:00,52.4,48.0,30.36,East,92,4.0,6.0,85,0.00,,,0.00,WeatherCatV1.21B27,2013-10-10 06:16:00,
2013-10-10 02:17:00,52.4,48.0,30.36,East,93,1.0,6.0,85,0.00,,,0.00,WeatherCatV1.21B27,2013-10-10 06:17:00,
2013-10-10 02:18:00,52.5,48.4,30.36,East,93,1.0,4.0,86,0.00,,,0.00,WeatherCatV1.21B27,2013-10-10 06:18:00,
2013-10-10 02:19:00,52.5,48.4,30.37,East,98,0.0,4.0,86,0.00,,,0.00,WeatherCatV1.21B27,2013-10-10 06:19:00,
2013-10-10 02:20:00,52.5,48.4,30.36,East,98,1.0,4.0,86,0.00,,,0.00,WeatherCatV1.21B27,2013-10-10 06:20:00,
2013-10-10 02:21:00,52.5,48.4,30.36,ESE,111,2.0,5.0,86,0.00,,,0.00,WeatherCatV1.21B27,2013-10-10 06:21:00,
2013-10-10 02:22:00,52.5,48.1,30.36,ESE,111,1.0,5.0,85,0.00,,,0.00,WeatherCatV1.21B27,2013-10-10 06:22:00,
2013-10-10 02:23:00,52.6,48.2,30.36,ESE,111,0.0,5.0,85,0.00,,,0.00,WeatherCatV1.21B27,2013-10-10 06:23:00,
2013-10-10 02:25:00,52.6,48.5,30.36,ESE,107,6.0,6.0,86,0.00,,,0.00,WeatherCatV1.21B27,2013-10-10 06:25:00,
2013-10-10 02:26:00,52.6,48.2,30.36,ESE,107,2.0,6.0,85,0.00,,,0.00,WeatherCatV1.21B27,2013-10-10 06:26:00,
2013-10-10 02:28:00,52.6,48.5,30.36,ESE,107,4.0,9.0,86,0.00,,,0.00,WeatherCatV1.21B27,2013-10-10 06:28:00,
2013-10-10 02:30:00,52.7,48.3,30.36,ESE,110,0.0,4.0,85,0.00,,,0.00,WeatherCatV1.21B27,2013-10-10 06:30:00,
2013-10-10 02:31:00,52.8,48.7,30.36,ESE,110,1.0,4.0,86,0.00,,,0.00,WeatherCatV1.21B27,2013-10-10 06:31:00,
2013-10-10 02:33:00,52.8,48.7,30.36,ESE,110,0.0,5.0,86,0.00,,,0.00,WeatherCatV1.21B27,2013-10-10 06:33:00,
2013-10-10 02:34:00,52.8,48.7,30.36,ESE,109,0.0,5.0,86,0.00,,,0.00,WeatherCatV1.21B27,2013-10-10 06:34:00,
2013-10-10 02:35:00,52.8,48.7,30.36,ESE,109,2.0,2.0,86,0.00,,,0.00,WeatherCatV1.21B27,2013-10-10 06:35:00,
2013-10-10 02:36:00,52.8,48.7,30.36,ESE,109,0.0,2.0,86,0.00,,,0.00,WeatherCatV1.21B27,2013-10-10 06:36:00,
2013-10-10 02:37:00,52.8,48.7,30.36,ENE,59,0.0,5.0,86,0.00,,,0.00,WeatherCatV1.21B27,2013-10-10 06:37:00,
2013-10-10 02:38:00,52.8,48.7,30.36,ESE,120,2.0,5.0,86,0.00,,,0.00,WeatherCatV1.21B27,2013-10-10 06:38:00,
2013-10-10 02:39:00,52.8,48.7,30.36,East,86,3.0,4.0,86,0.00,,,0.00,WeatherCatV1.21B27,2013-10-10 06:39:00,
2013-10-10 02:40:00,52.9,48.8,30.36,East,88,0.0,4.0,86,0.00,,,0.00,WeatherCatV1.21B27,2013-10-10 06:40:00,
2013-10-10 02:41:00,52.9,48.8,30.36,East,91,1.0,2.0,86,0.00,,,0.00,WeatherCatV1.21B27,2013-10-10 06:41:00,
2013-10-10 02:42:00,52.9,48.8,30.36,East,98,0.0,4.0,86,0.00,,,0.00,WeatherCatV1.21B27,2013-10-10 06:42:00,
2013-10-10 02:43:00,53.0,48.9,30.36,ESE,117,0.0,5.0,86,0.00,,,0.00,WeatherCatV1.21B27,2013-10-10 06:43:00,
2013-10-10 02:44:00,53.0,48.9,30.36,ESE,116,1.0,5.0,86,0.00,,,0.00,WeatherCatV1.21B27,2013-10-10 06:44:00,
2013-10-10 02:45:00,53.0,48.9,30.36,East,99,2.0,6.0,86,0.00,,,0.00,WeatherCatV1.21B27,2013-10-10 06:45:00,
2013-10-10 02:46:00,53.0,48.9,30.36,ESE,107,2.0,6.0,86,0.00,,,0.00,WeatherCatV1.21B27,2013-10-10 06:46:00,
2013-10-10 02:47:00,53.1,49.0,30.35,ESE,107,1.0,4.0,86,0.00,,,0.00,WeatherCatV1.21B27,2013-10-10 06:47:00,
2013-10-10 02:48:00,53.1,49.0,30.35,ESE,116,2.0,6.0,86,0.00,,,0.00,WeatherCatV1.21B27,2013-10-10 06:48:00,
2013-10-10 02:49:00,53.2,49.1,30.35,ESE,116,0.0,6.0,86,0.00,,,0.00,WeatherCatV1.21B27,2013-10-10 06:49:00,
2013-10-10 02:50:00,53.2,48.8,30.35,East,92,1.0,6.0,85,0.00,,,0.00,WeatherCatV1.21B27,2013-10-10 06:50:00,
2013-10-10 02:51:00,53.2,48.8,30.35,East,98,1.0,5.0,85,0.00,,,0.00,WeatherCatV1.21B27,2013-10-10 06:51:00,
2013-10-10 02:52:00,53.2,48.8,30.35,ESE,103,0.0,4.0,85,0.00,,,0.00,WeatherCatV1.21B27,2013-10-10 06:52:00,
2013-10-10 02:54:00,53.3,48.9,30.35,ESE,105,1.0,5.0,85,0.00,,,0.00,WeatherCatV1.21B27,2013-10-10 06:54:00,
2013-10-10 02:55:00,53.3,48.9,30.35,ESE,105,0.0,5.0,85,0.00,,,0.00,WeatherCatV1.21B27,2013-10-10 06:55:00,
2013-10-10 02:56:00,53.3,49.2,30.35,ESE,108,0.0,5.0,86,0.00,,,0.00,WeatherCatV1.21B27,2013-10-10 06:56:00,
2013-10-10 02:57:00,53.3,48.9,30.35,ESE,111,5.0,7.0,85,0.00,,,0.00,WeatherCatV1.21B27,2013-10-10 06:57:00,
2013-10-10 02:58:00,53.4,49.0,30.35,ESE,115,1.0,7.0,85,0.00,,,0.00,WeatherCatV1.21B27,2013-10-10 06:58:00,
2013-10-10 02:59:00,53.5,49.1,30.35,ESE,107,2.0,6.0,85,0.00,,,0.00,WeatherCatV1.21B27,2013-10-10 06:59:00,
2013-10-10 03:00:00,53.5,49.1,30.35,ESE,119,6.0,6.0,85,0.00,,,0.00,WeatherCatV1.21B27,2013-10-10 07:00:00,
2013-10-10 03:01:00,53.5,49.1,30.35,East,99,2.0,6.0,85,0.00,,,0.00,WeatherCatV1.21B27,2013-10-10 07:01:00,
2013-10-10 03:02:00,53.6,49.2,30.35,ESE,103,0.0,5.0,85,0.00,,,0.00,WeatherCatV1.21B27,2013-10-10 07:02:00,
2013-10-10 03:03:00,53.6,49.2,30.35,SE,128,4.0,5.0,85,0.00,,,0.00,WeatherCatV1.21B27,2013-10-10 07:03:00,
2013-10-10 03:05:00,53.7,49.3,30.35,SE,130,1.0,5.0,85,0.00,,,0.00,WeatherCatV1.21B27,2013-10-10 07:05:00,
2013-10-10 03:06:00,53.7,49.3,30.35,ESE,118,1.0,5.0,85,0.00,,,0.00,WeatherCatV1.21B27,2013-10-10 07:06:00,
2013-10-10 03:07:00,53.7,49.3,30.35,ESE,112,6.0,6.0,85,0.00,,,0.00,WeatherCatV1.21B27,2013-10-10 07:07:00,
2013-10-10 03:08:00,53.7,49.3,30.35,ESE,114,0.0,6.0,85,0.00,,,0.00,WeatherCatV1.21B27,2013-10-10 07:08:00,
2013-10-10 03:10:00,53.8,49.4,30.35,ESE,114,1.0,2.0,85,0.00,,,0.00,WeatherCatV1.21B27,2013-10-10 07:10:00,
2013-10-10 03:11:00,53.7,49.3,30.35,SE,127,5.0,5.0,85,0.00,,,0.00,WeatherCatV1.21B27,2013-10-10 07:11:00,
2013-10-10 03:12:00,53.7,49.3,30.35,SE,127,0.0,5.0,85,0.00,,,0.00,WeatherCatV1.21B27,2013-10-10 07:12:00,
2013-10-10 03:13:00,53.7,49.3,30.35,SE,127,0.0,2.0,85,0.00,,,0.00,WeatherCatV1.21B27,2013-10-10 07:13:00,
2013-10-10 03:15:00,53.7,49.6,30.35,SE,126,0.0,5.0,86,0.00,,,0.00,WeatherCatV1.21B27,2013-10-10 07:15:00,
2013-10-10 03:16:00,53.7,49.6,30.35,ESE,121,2.0,5.0,86,0.00,,,0.00,WeatherCatV1.21B27,2013-10-10 07:16:00,
2013-10-10 03:17:00,53.7,49.6,30.35,ESE,116,2.0,5.0,86,0.00,,,0.00,WeatherCatV1.21B27,2013-10-10 07:17:00,
2013-10-10 03:18:00,53.7,49.6,30.35,East,93,0.0,5.0,86,0.00,,,0.00,WeatherCatV1.21B27,2013-10-10 07:18:00,
2013-10-10 03:20:00,53.6,49.5,30.35,East,96,0.0,4.0,86,0.00,,,0.00,WeatherCatV1.21B27,2013-10-10 07:20:00,
2013-10-10 03:21:00,53.6,49.5,30.35,East,96,1.0,4.0,86,0.00,,,0.00,WeatherCatV1.21B27,2013-10-10 07:21:00,
2013-10-10 03:22:00,53.6,49.5,30.35,SE,132,5.0,7.0,86,0.00,,,0.00,WeatherCatV1.21B27,2013-10-10 07:22:00,
2013-10-10 03:23:00,53.6,49.5,30.35,East,99,4.0,7.0,86,0.00,,,0.00,WeatherCatV1.21B27,2013-10-10 07:23:00,
2013-10-10 03:24:00,53.6,49.5,30.35,East,94,0.0,5.0,86,0.00,,,0.00,WeatherCatV1.21B27,2013-10-10 07:24:00,
2013-10-10 03:25:00,53.6,49.5,30.35,East,99,0.0,5.0,86,0.00,,,0.00,WeatherCatV1.21B27,2013-10-10 07:25:00,
2013-10-10 03:26:00,53.6,49.5,30.35,East,99,4.0,4.0,86,0.00,,,0.00,WeatherCatV1.21B27,2013-10-10 07:26:00,
2013-10-10 03:27:00,53.6,49.5,30.35,East,99,1.0,4.0,86,0.00,,,0.00,WeatherCatV1.21B27,2013-10-10 07:27:00,
2013-10-10 03:28:00,53.6,49.5,30.35,East,99,0.0,4.0,86,0.00,,,0.00,WeatherCatV1.21B27,2013-10-10 07:28:00,
2013-10-10 03:29:00,53.5,49.4,30.35,East,100,0.0,4.0,86,0.00,,,0.00,WeatherCatV1.21B27,2013-10-10 07:29:00,
2013-10-10 03:31:00,53.5,49.4,30.35,East,100,0.0,2.0,86,0.00,,,0.00,WeatherCatV1.21B27,2013-10-10 07:31:00,
2013-10-10 03:32:00,53.5,49.4,30.35,ESE,105,5.0,6.0,86,0.00,,,0.00,WeatherCatV1.21B27,2013-10-10 07:32:00,
2013-10-10 03:33:00,53.5,49.4,30.35,ESE,108,1.0,6.0,86,0.00,,,0.00,WeatherCatV1.21B27,2013-10-10 07:33:00,
2013-10-10 03:35:00,53.5,49.7,30.35,ESE,110,0.0,5.0,87,0.00,,,0.00,WeatherCatV1.21B27,2013-10-10 07:35:00,
2013-10-10 03:36:00,53.5,49.7,30.35,East,82,1.0,3.0,87,0.00,,,0.00,WeatherCatV1.21B27,2013-10-10 07:36:00,
2013-10-10 03:37:00,53.5,49.7,30.35,East,82,0.0,3.0,87,0.00,,,0.00,WeatherCatV1.21B27,2013-10-10 07:37:00,
2013-10-10 03:38:00,53.5,49.7,30.35,East,88,0.0,2.0,87,0.00,,,0.00,WeatherCatV1.21B27,2013-10-10 07:38:00,
2013-10-10 03:40:00,53.4,49.6,30.35,East,91,0.0,2.0,87,0.00,,,0.00,WeatherCatV1.21B27,2013-10-10 07:40:00,
2013-10-10 03:41:00,53.4,49.6,30.35,East,91,0.0,0.0,87,0.00,,,0.00,WeatherCatV1.21B27,2013-10-10 07:41:00,
2013-10-10 03:42:00,53.4,49.6,30.35,ESE,105,4.0,4.0,87,0.00,,,0.00,WeatherCatV1.21B27,2013-10-10 07:42:00,
2013-10-10 03:43:00,53.3,49.5,30.35,ESE,105,2.0,4.0,87,0.00,,,0.00,WeatherCatV1.21B27,2013-10-10 07:43:00,
2013-10-10 03:44:00,53.3,49.5,30.35,SE,124,5.0,5.0,87,0.00,,,0.00,WeatherCatV1.21B27,2013-10-10 07:44:00,
2013-10-10 03:45:00,53.4,49.6,30.35,ESE,105,0.0,6.0,87,0.00,,,0.00,WeatherCatV1.21B27,2013-10-10 07:45:00,
2013-10-10 03:46:00,53.3,49.5,30.35,ESE,107,1.0,4.0,87,0.00,,,0.00,WeatherCatV1.21B27,2013-10-10 07:46:00,
2013-10-10 03:47:00,53.3,49.5,30.35,ESE,107,1.0,4.0,87,0.00,,,0.00,WeatherCatV1.21B27,2013-10-10 07:47:00,
2013-10-10 03:48:00,53.4,49.6,30.35,ESE,107,0.0,2.0,87,0.00,,,0.00,WeatherCatV1.21B27,2013-10-10 07:48:00,
2013-10-10 03:49:00,53.4,49.6,30.35,ESE,102,2.0,4.0,87,0.00,,,0.00,WeatherCatV1.21B27,2013-10-10 07:49:00,
2013-10-10 03:50:00,53.4,49.6,30.35,ESE,108,1.0,4.0,87,0.00,,,0.00,WeatherCatV1.21B27,2013-10-10 07:50:00,
2013-10-10 03:51:00,53.4,49.6,30.35,ESE,111,2.0,2.0,87,0.00,,,0.00,WeatherCatV1.21B27,2013-10-10 07:51:00,
2013-10-10 03:52:00,53.4,49.6,30.35,ESE,111,0.0,4.0,87,0.00,,,0.00,WeatherCatV1.21B27,2013-10-10 07:52:00,
2013-10-10 03:53:00,53.4,49.6,30.35,ESE,112,4.0,4.0,87,0.00,,,0.00,WeatherCatV1.21B27,2013-10-10 07:53:00,
2013-10-10 03:54:00,53.4,49.6,30.35,ESE,112,2.0,5.0,87,0.00,,,0.00,WeatherCatV1.21B27,2013-10-10 07:54:00,
2013-10-10 03:56:00,53.4,49.9,30.34,ESE,116,7.0,8.0,88,0.00,,,0.00,WeatherCatV1.21B27,2013-10-10 07:56:00,
2013-10-10 03:58:00,53.3,49.8,30.34,ESE,116,2.0,8.0,88,0.00,,,0.00,WeatherCatV1.21B27,2013-10-10 07:58:00,
2013-10-10 03:59:00,53.3,49.8,30.34,ESE,107,0.0,5.0,88,0.00,,,0.00,WeatherCatV1.21B27,2013-10-10 07:59:00,
2013-10-10 04:01:00,53.3,49.8,30.34,ESE,107,1.0,2.0,88,0.00,,,0.00,WeatherCatV1.21B27,2013-10-10 08:01:00,
2013-10-10 04:02:00,53.3,49.8,30.34,ESE,107,0.0,2.0,88,0.00,,,0.00,WeatherCatV1.21B27,2013-10-10 08:02:00,
2013-10-10 04:03:00,53.3,49.8,30.34,SE,137,0.0,4.0,88,0.00,,,0.00,WeatherCatV1.21B27,2013-10-10 08:03:00,
2013-10-10 04:04:00,53.3,49.8,30.34,ESE,113,5.0,5.0,88,0.00,,,0.00,WeatherCatV1.21B27,2013-10-10 08:04:00,
2013-10-10 04:06:00,53.3,49.8,30.34,ESE,107,4.0,5.0,88,0.00,,,0.00,WeatherCatV1.21B27,2013-10-10 08:06:00,
2013-10-10 04:07:00,53.4,49.9,30.34,ESE,107,0.0,5.0,88,0.00,,,0.00,WeatherCatV1.21B27,2013-10-10 08:07:00,
2013-10-10 04:08:00,53.3,49.8,30.34,East,84,4.0,7.0,88,0.00,,,0.00,WeatherCatV1.21B27,2013-10-10 08:08:00,
2013-10-10 04:09:00,53.4,49.9,30.34,East,94,1.0,7.0,88,0.00,,,0.00,WeatherCatV1.21B27,2013-10-10 08:09:00,
2013-10-10 04:11:00,53.4,49.9,30.34,East,99,4.0,4.0,88,0.00,,,0.00,WeatherCatV1.21B27,2013-10-10 08:11:00,
2013-10-10 04:12:00,53.5,50.0,30.34,East,99,1.0,4.0,88,0.00,,,0.00,WeatherCatV1.21B27,2013-10-10 08:12:00,
2013-10-10 04:13:00,53.5,50.0,30.34,East,99,0.0,4.0,88,0.00,,,0.00,WeatherCatV1.21B27,2013-10-10 08:13:00,
2013-10-10 04:14:00,53.5,50.0,30.34,East,99,2.0,2.0,88,0.00,,,0.00,WeatherCatV1.21B27,2013-10-10 08:14:00,
2013-10-10 04:17:00,53.5,50.0,30.34,East,98,0.0,5.0,88,0.00,,,0.00,WeatherCatV1.21B27,2013-10-10 08:17:00,
2013-10-10 04:18:00,53.5,50.0,30.34,East,81,0.0,5.0,88,0.00,,,0.00,WeatherCatV1.21B27,2013-10-10 08:18:00,
2013-10-10 04:19:00,53.5,50.0,30.34,SSE,153,0.0,3.0,88,0.00,,,0.00,WeatherCatV1.21B27,2013-10-10 08:19:00,
2013-10-10 04:20:00,53.5,50.0,30.34,SSE,153,0.0,3.0,88,0.00,,,0.00,WeatherCatV1.21B27,2013-10-10 08:20:00,
2013-10-10 04:22:00,53.5,50.0,30.34,ESE,105,0.0,5.0,88,0.00,,,0.00,WeatherCatV1.21B27,2013-10-10 08:22:00,
2013-10-10 04:23:00,53.5,50.0,30.34,East,84,3.0,3.0,88,0.00,,,0.00,WeatherCatV1.21B27,2013-10-10 08:23:00,
2013-10-10 04:24:00,53.5,50.0,30.34,ENE,76,1.0,3.0,88,0.00,,,0.00,WeatherCatV1.21B27,2013-10-10 08:24:00,
2013-10-10 04:25:00,53.4,49.9,30.34,ENE,76,0.0,3.0,88,0.00,,,0.00,WeatherCatV1.21B27,2013-10-10 08:25:00,
2013-10-10 04:27:00,53.4,50.2,30.34,East,90,1.0,6.0,89,0.00,,,0.00,WeatherCatV1.21B27,2013-10-10 08:27:00,
2013-10-10 04:28:00,53.4,50.2,30.34,ENE,74,4.0,4.0,89,0.00,,,0.00,WeatherCatV1.21B27,2013-10-10 08:28:00,
2013-10-10 04:29:00,53.4,50.2,30.34,ENE,74,2.0,4.0,89,0.00,,,0.00,WeatherCatV1.21B27,2013-10-10 08:29:00,
2013-10-10 04:30:00,53.4,50.2,30.34,ENE,74,0.0,4.0,89,0.00,,,0.00,WeatherCatV1.21B27,2013-10-10 08:30:00,
2013-10-10 04:32:00,53.4,50.2,30.34,East,90,0.0,4.0,89,0.00,,,0.00,WeatherCatV1.21B27,2013-10-10 08:32:00,
2013-10-10 04:34:00,53.4,50.2,30.34,ESE,115,5.0,6.0,89,0.00,,,0.00,WeatherCatV1.21B27,2013-10-10 08:34:00,
2013-10-10 04:35:00,53.4,50.2,30.34,ESE,115,0.0,6.0,89,0.00,,,0.00,WeatherCatV1.21B27,2013-10-10 08:35:00,
2013-10-10 04:37:00,53.4,50.2,30.34,ESE,115,0.0,1.0,89,0.00,,,0.00,WeatherCatV1.21B27,2013-10-10 08:37:00,
2013-10-10 04:39:00,53.4,50.2,30.34,East,84,2.0,5.0,89,0.00,,,0.00,WeatherCatV1.21B27,2013-10-10 08:39:00,
2013-10-10 04:40:00,53.4,50.2,30.34,East,84,1.0,5.0,89,0.00,,,0.00,WeatherCatV1.21B27,2013-10-10 08:40:00,
2013-10-10 04:41:00,53.4,50.2,30.34,East,84,0.0,2.0,89,0.00,,,0.00,WeatherCatV1.21B27,2013-10-10 08:41:00,
2013-10-10 04:43:00,53.3,50.1,30.34,ESE,112,0.0,5.0,89,0.00,,,0.00,WeatherCatV1.21B27,2013-10-10 08:43:00,
2013-10-10 04:44:00,53.4,50.2,30.34,ESE,122,0.0,6.0,89,0.00,,,0.00,WeatherCatV1.21B27,2013-10-10 08:44:00,
2013-10-10 04:45:00,53.4,50.2,30.34,ESE,122,0.0,6.0,89,0.00,,,0.00,WeatherCatV1.21B27,2013-10-10 08:45:00,
2013-10-10 04:46:00,53.4,50.2,30.34,SE,138,6.0,6.0,89,0.00,,,0.00,WeatherCatV1.21B27,2013-10-10 08:46:00,
2013-10-10 04:48:00,53.5,50.3,30.34,ESE,108,2.0,8.0,89,0.00,,,0.00,WeatherCatV1.21B27,2013-10-10 08:48:00,
2013-10-10 04:49:00,53.5,50.3,30.34,ESE,109,4.0,5.0,89,0.00,,,0.00,WeatherCatV1.21B27,2013-10-10 08:49:00,
2013-10-10 04:50:00,53.5,50.3,30.34,SSE,168,5.0,6.0,89,0.00,,,0.00,WeatherCatV1.21B27,2013-10-10 08:50:00,
2013-10-10 04:51:00,53.5,50.3,30.34,SE,130,0.0,6.0,89,0.00,,,0.00,WeatherCatV1.21B27,2013-10-10 08:51:00,
2013-10-10 04:53:00,53.6,50.4,30.34,ESE,123,4.0,9.0,89,0.00,,,0.00,WeatherCatV1.21B27,2013-10-10 08:53:00,
2013-10-10 04:54:00,53.7,50.5,30.34,SSE,153,2.0,4.0,89,0.00,,,0.00,WeatherCatV1.21B27,2013-10-10 08:54:00,
2013-10-10 04:56:00,53.8,50.6,30.34,ESE,105,4.0,5.0,89,0.00,,,0.00,WeatherCatV1.21B27,2013-10-10 08:56:00,
2013-10-10 04:58:00,53.9,50.7,30.34,ESE,107,0.0,6.0,89,0.00,,,0.00,WeatherCatV1.21B27,2013-10-10 08:58:00,
2013-10-10 04:59:00,53.9,50.7,30.34,ESE,107,0.0,6.0,89,0.00,,,0.00,WeatherCatV1.21B27,2013-10-10 08:59:00,
2013-10-10 05:00:00,54.0,50.8,30.34,ESE,123,5.0,5.0,89,0.00,,,0.00,WeatherCatV1.21B27,2013-10-10 09:00:00,
2013-10-10 05:01:00,54.0,50.8,30.34,SE,124,0.0,5.0,89,0.00,,,0.00,WeatherCatV1.21B27,2013-10-10 09:01:00,
2013-10-10 05:02:00,54.0,50.8,30.34,SE,124,0.0,5.0,89,0.00,,,0.00,WeatherCatV1.21B27,2013-10-10 09:02:00,
2013-10-10 05:03:00,54.1,50.9,30.34,SE,124,1.0,4.0,89,0.00,,,0.00,WeatherCatV1.21B27,2013-10-10 09:03:00,
2013-10-10 05:04:00,54.1,50.9,30.34,SE,132,2.0,5.0,89,0.00,,,0.00,WeatherCatV1.21B27,2013-10-10 09:04:00,
2013-10-10 05:05:00,54.1,50.9,30.34,SE,132,0.0,5.0,89,0.00,,,0.00,WeatherCatV1.21B27,2013-10-10 09:05:00,
2013-10-10 05:06:00,54.1,50.9,30.34,SE,132,1.0,1.0,89,0.00,,,0.00,WeatherCatV1.21B27,2013-10-10 09:06:00,
2013-10-10 05:07:00,54.1,50.9,30.34,SE,132,4.0,5.0,89,0.00,,,0.00,WeatherCatV1.21B27,2013-10-10 09:07:00,
2013-10-10 05:08:00,54.1,50.6,30.34,ESE,105,2.0,5.0,88,0.00,,,0.00,WeatherCatV1.21B27,2013-10-10 09:08:00,
2013-10-10 05:09:00,54.1,50.6,30.34,East,98,7.0,7.0,88,0.00,,,0.00,WeatherCatV1.21B27,2013-10-10 09:09:00,
2013-10-10 05:10:00,54.2,51.0,30.34,SE,130,4.0,7.0,89,0.00,,,0.00,WeatherCatV1.21B27,2013-10-10 09:10:00,
2013-10-10 05:11:00,54.2,51.0,30.34,ESE,116,5.0,6.0,89,0.00,,,0.00,WeatherCatV1.21B27,2013-10-10 09:11:00,
2013-10-10 05:12:00,54.2,51.0,30.34,East,93,1.0,6.0,89,0.00,,,0.00,WeatherCatV1.21B27,2013-10-10 09:12:00,
2013-10-10 05:13:00,54.3,51.1,30.34,East,95,0.0,0.0,89,0.00,,,0.00,WeatherCatV1.21B27,2013-10-10 09:13:00,
2013-10-10 05:15:00,54.3,50.8,30.34,East,95,0.0,2.0,88,0.00,,,0.00,WeatherCatV1.21B27,2013-10-10 09:15:00,
2013-10-10 05:17:00,54.4,50.9,30.34,East,99,0.0,4.0,88,0.00,,,0.00,WeatherCatV1.21B27,2013-10-10 09:17:00,
2013-10-10 05:18:00,54.4,50.9,30.34,East,99,4.0,4.0,88,0.00,,,0.00,WeatherCatV1.21B27,2013-10-10 09:18:00,
2013-10-10 05:20:00,54.4,50.9,30.35,East,99,0.0,4.0,88,0.00,,,0.00,WeatherCatV1.21B27,2013-10-10 09:20:00,
2013-10-10 05:22:00,54.4,51.2,30.35,ESE,108,2.0,5.0,89,0.00,,,0.00,WeatherCatV1.21B27,2013-10-10 09:22:00,
2013-10-10 05:23:00,54.4,51.2,30.35,ESE,108,0.0,5.0,89,0.00,,,0.00,WeatherCatV1.21B27,2013-10-10 09:23:00,
2013-10-10 05:25:00,54.4,51.2,30.35,ESE,108,0.0,5.0,89,0.00,,,0.00,WeatherCatV1.21B27,2013-10-10 09:25:00,
2013-10-10 05:27:00,54.4,50.9,30.35,ESE,108,0.0,4.0,88,0.00,,,0.00,WeatherCatV1.21B27,2013-10-10 09:27:00,
2013-10-10 05:28:00,54.4,50.9,30.35,ESE,109,0.0,4.0,88,0.00,,,0.00,WeatherCatV1.21B27,2013-10-10 09:28:00,
2013-10-10 05:30:00,54.5,51.0,30.34,ESE,109,0.0,4.0,88,0.00,,,0.00,WeatherCatV1.21B27,2013-10-10 09:30:00,
2013-10-10 05:32:00,54.4,51.2,30.34,ESE,109,2.0,2.0,89,0.00,,,0.00,WeatherCatV1.21B27,2013-10-10 09:32:00,
2013-10-10 05:33:00,54.4,50.9,30.34,ESE,109,0.0,2.0,88,0.00,,,0.00,WeatherCatV1.21B27,2013-10-10 09:33:00,
2013-10-10 05:34:00,54.4,50.9,30.34,ESE,108,0.0,4.0,88,0.00,,,0.00,WeatherCatV1.21B27,2013-10-10 09:34:00,
2013-10-10 05:36:00,54.4,51.2,30.34,ESE,108,1.0,4.0,89,0.00,,,0.00,WeatherCatV1.21B27,2013-10-10 09:36:00,
2013-10-10 05:37:00,54.3,51.1,30.34,ESE,109,2.0,7.0,89,0.00,,,0.00,WeatherCatV1.21B27,2013-10-10 09:37:00,
2013-10-10 05:38:00,54.3,51.1,30.34,ESE,109,2.0,7.0,89,0.00,,,0.00,WeatherCatV1.21B27,2013-10-10 09:38:00,
2013-10-10 05:39:00,54.3,51.1,30.34,ESE,107,2.0,6.0,89,0.00,,,0.00,WeatherCatV1.21B27,2013-10-10 09:39:00,
2013-10-10 05:42:00,54.3,51.1,30.34,ESE,113,0.0,6.0,89,0.00,,,0.00,WeatherCatV1.21B27,2013-10-10 09:42:00,
2013-10-10 05:43:00,54.3,51.1,30.34,ESE,113,0.0,0.0,89,0.00,,,0.00,WeatherCatV1.21B27,2013-10-10 09:43:00,
2013-10-10 05:44:00,54.4,51.2,30.34,ESE,113,1.0,2.0,89,0.00,,,0.00,WeatherCatV1.21B27,2013-10-10 09:44:00,
2013-10-10 05:47:00,54.3,51.1,30.34,East,97,1.0,6.0,89,0.00,,,0.00,WeatherCatV1.21B27,2013-10-10 09:47:00,
2013-10-10 05:48:00,54.3,51.1,30.34,ESE,120,4.0,6.0,89,0.00,,,0.00,WeatherCatV1.21B27,2013-10-10 09:48:00,
2013-10-10 05:49:00,54.3,51.1,30.34,ESE,119,1.0,7.0,89,0.00,,,0.00,WeatherCatV1.21B27,2013-10-10 09:49:00,
2013-10-10 05:52:00,54.3,51.1,30.34,East,101,5.0,5.0,89,0.00,,,0.00,WeatherCatV1.21B27,2013-10-10 09:52:00,
2013-10-10 05:53:00,54.3,51.1,30.34,ESE,103,5.0,6.0,89,0.00,,,0.00,WeatherCatV1.21B27,2013-10-10 09:53:00,
2013-10-10 05:55:00,54.3,51.1,30.34,East,98,0.0,5.0,89,0.00,,,0.00,WeatherCatV1.21B27,2013-10-10 09:55:00,
2013-10-10 05:58:00,54.3,51.1,30.34,ESE,103,0.0,2.0,89,0.00,,,0.00,WeatherCatV1.21B27,2013-10-10 09:58:00,
2013-10-10 06:00:00,54.3,51.1,30.34,East,94,0.0,5.0,89,0.00,,,0.00,WeatherCatV1.21B27,2013-10-10 10:00:00,
2013-10-10 06:03:00,54.2,51.0,30.34,East,99,4.0,4.0,89,0.00,,,0.00,WeatherCatV1.21B27,2013-10-10 10:03:00,
2013-10-10 06:04:00,54.3,51.1,30.34,East,99,1.0,4.0,89,0.00,,,0.00,WeatherCatV1.21B27,2013-10-10 10:04:00,
2013-10-10 06:05:00,54.2,51.0,30.34,East,99,0.0,4.0,89,0.00,,,0.00,WeatherCatV1.21B27,2013-10-10 10:05:00,
2013-10-10 06:08:00,54.1,50.9,30.34,ESE,106,1.0,4.0,89,0.00,,,0.00,WeatherCatV1.21B27,2013-10-10 10:08:00,
2013-10-10 06:09:00,54.2,51.0,30.34,ESE,106,0.0,4.0,89,0.00,,,0.00,WeatherCatV1.21B27,2013-10-10 10:09:00,
2013-10-10 06:10:00,54.1,50.9,30.34,East,80,0.0,4.0,89,0.00,,,0.00,WeatherCatV1.21B27,2013-10-10 10:10:00,
2013-10-10 06:13:00,54.0,50.8,30.34,ESE,112,1.0,4.0,89,0.00,,,0.00,WeatherCatV1.21B27,2013-10-10 10:13:00,
2013-10-10 06:14:00,53.9,50.7,30.34,ESE,112,2.0,4.0,89,0.00,,,0.00,WeatherCatV1.21B27,2013-10-10 10:14:00,
2013-10-10 06:15:00,53.9,50.7,30.34,ESE,113,4.0,4.0,89,0.00,,,0.00,WeatherCatV1.21B27,2013-10-10 10:15:00,
2013-10-10 06:19:00,53.9,50.7,30.34,SE,129,1.0,5.0,89,0.00,,,0.00,WeatherCatV1.21B27,2013-10-10 10:19:00,
2013-10-10 06:20:00,53.9,50.7,30.34,SE,129,0.0,1.0,89,0.00,,,0.00,WeatherCatV1.21B27,2013-10-10 10:20:00,
2013-10-10 06:24:00,53.9,51.6,30.34,ESE,114,0.0,2.0,92,0.00,,,0.00,WeatherCatV1.21B27,2013-10-10 10:24:00,
2013-10-10 06:25:00,53.9,50.7,30.34,ESE,114,0.0,0.0,89,0.00,,,0.00,WeatherCatV1.21B27,2013-10-10 10:25:00,
2013-10-10 06:29:00,53.8,50.6,30.34,ESE,115,1.0,2.0,89,0.00,,,0.00,WeatherCatV1.21B27,2013-10-10 10:29:00,
2013-10-10 06:30:00,53.8,50.6,30.34,ESE,115,4.0,4.0,89,0.00,,,0.00,WeatherCatV1.21B27,2013-10-10 10:30:00,
2013-10-10 06:31:00,53.7,50.5,30.34,ESE,115,0.0,4.0,89,0.00,,,0.00,WeatherCatV1.21B27,2013-10-10 10:31:00,
2013-10-10 06:34:00,53.6,50.7,30.34,SE,126,2.0,5.0,90,0.00,,,0.00,WeatherCatV1.21B27,2013-10-10 10:34:00,
2013-10-10 06:35:00,53.6,50.7,30.34,SE,126,4.0,5.0,90,0.00,,,0.00,WeatherCatV1.21B27,2013-10-10 10:35:00,
2013-10-10 06:37:00,53.7,50.8,30.33,SE,126,2.0,4.0,90,0.00,,,0.00,WeatherCatV1.21B27,2013-10-10 10:37:00,
2013-10-10 06:39:00,53.7,50.8,30.34,SE,128,0.0,2.0,90,0.00,,,0.00,WeatherCatV1.21B27,2013-10-10 10:39:00,
2013-10-10 06:40:00,53.7,50.8,30.34,SE,128,0.0,2.0,90,0.00,,,0.00,WeatherCatV1.21B27,2013-10-10 10:40:00,
2013-10-10 06:43:00,53.6,50.7,30.34,ESE,116,0.0,6.0,90,0.00,,,0.00,WeatherCatV1.21B27,2013-10-10 10:43:00,
2013-10-10 06:44:00,53.6,50.7,30.34,ESE,114,4.0,4.0,90,0.00,,,0.00,WeatherCatV1.21B27,2013-10-10 10:44:00,
2013-10-10 06:45:00,53.7,50.8,30.34,ESE,111,2.0,5.0,90,0.00,,,0.00,WeatherCatV1.21B27,2013-10-10 10:45:00,
2013-10-10 06:46:00,53.6,50.7,30.34,ESE,111,0.0,5.0,90,0.00,,,0.00,WeatherCatV1.21B27,2013-10-10 10:46:00,
2013-10-10 06:48:00,53.6,50.7,30.34,ESE,111,0.0,0.0,90,0.00,,,0.00,WeatherCatV1.21B27,2013-10-10 10:48:00,
2013-10-10 06:50:00,53.6,50.7,30.34,ESE,111,0.0,0.0,90,0.00,,,0.00,WeatherCatV1.21B27,2013-10-10 10:50:00,
2013-10-10 06:51:00,53.6,50.7,30.34,ESE,111,0.0,0.0,90,0.00,,,0.00,WeatherCatV1.21B27,2013-10-10 10:51:00,
2013-10-10 06:53:00,53.5,50.6,30.34,ESE,107,4.0,4.0,90,0.00,,,0.00,WeatherCatV1.21B27,2013-10-10 10:53:00,
2013-10-10 06:55:00,53.5,50.6,30.34,ESE,107,0.0,4.0,90,0.00,,,0.00,WeatherCatV1.21B27,2013-10-10 10:55:00,
2013-10-10 06:56:00,53.5,50.6,30.34,ESE,107,1.0,2.0,90,0.00,,,0.00,WeatherCatV1.21B27,2013-10-10 10:56:00,
2013-10-10 06:57:00,53.5,50.6,30.34,ESE,107,0.0,1.0,90,0.00,,,0.00,WeatherCatV1.21B27,2013-10-10 10:57:00,
2013-10-10 06:59:00,53.4,50.5,30.34,ESE,107,0.0,2.0,90,0.00,,,0.00,WeatherCatV1.21B27,2013-10-10 10:59:00,
2013-10-10 07:00:00,53.4,50.5,30.34,ESE,107,0.0,0.0,90,0.00,,,0.00,WeatherCatV1.21B27,2013-10-10 11:00:00,
2013-10-10 07:01:00,53.3,50.4,30.33,ESE,107,0.0,0.0,90,0.00,,,0.00,WeatherCatV1.21B27,2013-10-10 11:01:00,
2013-10-10 07:02:00,53.3,50.4,30.33,ESE,107,0.0,1.0,90,0.00,,,0.00,WeatherCatV1.21B27,2013-10-10 11:02:00,
2013-10-10 07:04:00,53.2,50.3,30.33,East,88,0.0,3.0,90,0.00,,,0.00,WeatherCatV1.21B27,2013-10-10 11:04:00,
2013-10-10 07:05:00,53.2,50.3,30.33,East,96,4.0,4.0,90,0.00,,,0.00,WeatherCatV1.21B27,2013-10-10 11:05:00,
2013-10-10 07:06:00,53.1,50.5,30.33,East,96,0.0,4.0,91,0.00,,,0.00,WeatherCatV1.21B27,2013-10-10 11:06:00,
2013-10-10 07:07:00,53.1,50.5,30.33,East,96,0.0,4.0,91,0.00,,,0.00,WeatherCatV1.21B27,2013-10-10 11:07:00,
2013-10-10 07:09:00,53.0,50.4,30.33,East,96,0.0,0.0,91,0.00,,,0.00,WeatherCatV1.21B27,2013-10-10 11:09:00,
2013-10-10 07:10:00,53.0,50.4,30.33,East,96,0.0,0.0,91,0.00,,,0.00,WeatherCatV1.21B27,2013-10-10 11:10:00,
2013-10-10 07:11:00,53.0,50.4,30.33,East,96,0.0,0.0,91,0.00,,,0.00,WeatherCatV1.21B27,2013-10-10 11:11:00,
2013-10-10 07:12:00,53.0,50.4,30.34,East,96,0.0,2.0,91,0.00,,,0.00,WeatherCatV1.21B27,2013-10-10 11:12:00,
2013-10-10 07:15:00,53.0,50.7,30.34,East,96,0.0,0.0,92,0.00,,,0.00,WeatherCatV1.21B27,2013-10-10 11:15:00,
2013-10-10 07:16:00,53.0,50.7,30.34,East,96,0.0,0.0,92,0.00,,,0.00,WeatherCatV1.21B27,2013-10-10 11:16:00,
2013-10-10 07:18:00,53.0,50.4,30.34,East,96,1.0,1.0,91,0.00,,,0.00,WeatherCatV1.21B27,2013-10-10 11:18:00,
2013-10-10 07:20:00,53.0,50.7,30.33,East,99,4.0,5.0,92,0.00,,,0.00,WeatherCatV1.21B27,2013-10-10 11:20:00,
2013-10-10 07:21:00,53.0,50.7,30.33,East,99,0.0,5.0,92,0.00,,,0.00,WeatherCatV1.21B27,2013-10-10 11:21:00,
2013-10-10 07:23:00,53.0,50.7,30.33,ESE,110,6.0,6.0,92,0.00,,,0.00,WeatherCatV1.21B27,2013-10-10 11:23:00,
2013-10-10 07:25:00,53.0,50.7,30.33,ESE,110,0.0,4.0,92,0.00,,,0.00,WeatherCatV1.21B27,2013-10-10 11:25:00,
2013-10-10 07:26:00,53.1,50.8,30.33,ESE,110,0.0,1.0,92,0.00,,,0.00,WeatherCatV1.21B27,2013-10-10 11:26:00,
2013-10-10 07:27:00,53.1,50.8,30.33,ESE,110,0.0,0.0,92,0.00,,,0.00,WeatherCatV1.21B27,2013-10-10 11:27:00,
2013-10-10 07:28:00,53.2,50.9,30.33,ESE,110,0.0,1.0,92,0.00,,,0.00,WeatherCatV1.21B27,2013-10-10 11:28:00,
2013-10-10 07:30:00,53.2,50.9,30.33,ESE,110,0.0,2.0,92,0.00,,,0.00,WeatherCatV1.21B27,2013-10-10 11:30:00,
2013-10-10 07:31:00,53.2,50.9,30.33,ESE,110,0.0,2.0,92,0.00,,,0.00,WeatherCatV1.21B27,2013-10-10 11:31:00,
2013-10-10 07:32:00,53.2,50.9,30.33,ESE,110,0.0,2.0,92,0.00,,,0.00,WeatherCatV1.21B27,2013-10-10 11:32:00,
2013-10-10 07:33:00,53.2,50.9,30.33,ESE,110,0.0,2.0,92,0.00,,,0.00,WeatherCatV1.21B27,2013-10-10 11:33:00,
2013-10-10 07:36:00,53.4,51.1,30.33,ESE,109,0.0,6.0,92,0.00,,,0.00,WeatherCatV1.21B27,2013-10-10 11:36:00,
2013-10-10 07:37:00,53.4,51.1,30.33,ESE,109,0.0,6.0,92,0.00,,,0.00,WeatherCatV1.21B27,2013-10-10 11:37:00,
2013-10-10 07:38:00,53.4,51.1,30.33,ESE,109,1.0,4.0,92,0.00,,,0.00,WeatherCatV1.21B27,2013-10-10 11:38:00,
2013-10-10 07:39:00,53.5,51.2,30.33,ESE,108,0.0,4.0,92,0.00,,,0.00,WeatherCatV1.21B27,2013-10-10 11:39:00,
2013-10-10 07:41:00,53.6,51.3,30.33,ESE,108,4.0,4.0,92,0.00,,,0.00,WeatherCatV1.21B27,2013-10-10 11:41:00,
2013-10-10 07:42:00,53.6,51.3,30.33,ESE,119,1.0,4.0,92,0.00,,,0.00,WeatherCatV1.21B27,2013-10-10 11:42:00,
2013-10-10 07:44:00,53.7,51.7,30.33,East,98,4.0,4.0,93,0.00,,,0.00,WeatherCatV1.21B27,2013-10-10 11:44:00,
2013-10-10 07:46:00,53.9,51.9,30.33,East,91,0.0,4.0,93,0.00,,,0.00,WeatherCatV1.21B27,2013-10-10 11:46:00,
2013-10-10 07:47:00,54.1,52.1,30.33,East,91,0.0,0.0,93,0.00,,,0.00,WeatherCatV1.21B27,2013-10-10 11:47:00,
2013-10-10 07:48:00,54.2,52.2,30.33,East,101,1.0,4.0,93,0.00,,,0.00,WeatherCatV1.21B27,2013-10-10 11:48:00,
2013-10-10 07:49:00,54.3,52.3,30.33,East,101,0.0,4.0,93,0.00,,,0.00,WeatherCatV1.21B27,2013-10-10 11:49:00,
2013-10-10 07:51:00,54.5,52.5,30.33,ESE,102,1.0,2.0,93,0.00,,,0.00,WeatherCatV1.21B27,2013-10-10 11:51:00,
2013-10-10 07:52:00,54.6,52.3,30.33,ESE,102,1.0,2.0,92,0.00,,,0.00,WeatherCatV1.21B27,2013-10-10 11:52:00,
2013-10-10 07:53:00,54.8,52.5,30.33,ESE,103,0.0,4.0,92,0.00,,,0.00,WeatherCatV1.21B27,2013-10-10 11:53:00,
2013-10-10 07:54:00,54.8,52.5,30.33,ESE,103,0.0,4.0,92,0.00,,,0.00,WeatherCatV1.21B27,2013-10-10 11:54:00,
2013-10-10 07:55:00,54.9,52.6,30.33,ESE,106,4.0,4.0,92,0.00,,,0.00,WeatherCatV1.21B27,2013-10-10 11:55:00,
2013-10-10 07:56:00,55.0,52.7,30.33,ESE,116,4.0,5.0,92,0.00,,,0.00,WeatherCatV1.21B27,2013-10-10 11:56:00,
2013-10-10 07:57:00,55.0,52.7,30.33,ESE,115,1.0,4.0,92,0.00,,,0.00,WeatherCatV1.21B27,2013-10-10 11:57:00,
2013-10-10 07:58:00,55.2,52.6,30.33,ESE,105,4.0,5.0,91,0.00,,,0.00,WeatherCatV1.21B27,2013-10-10 11:58:00,
2013-10-10 07:59:00,55.2,52.6,30.33,ESE,105,0.0,5.0,91,0.00,,,0.00,WeatherCatV1.21B27,2013-10-10 11:59:00,
2013-10-10 08:00:00,55.3,52.7,30.33,ESE,105,0.0,2.0,91,0.00,,,0.00,WeatherCatV1.21B27,2013-10-10 12:00:00,
2013-10-10 08:02:00,55.4,52.8,30.33,SE,140,2.0,6.0,91,0.00,,,0.00,WeatherCatV1.21B27,2013-10-10 12:02:00,
2013-10-10 08:04:00,55.6,53.0,30.34,ESE,115,0.0,2.0,91,0.00,,,0.00,WeatherCatV1.21B27,2013-10-10 12:04:00,
2013-10-10 08:05:00,55.7,53.1,30.33,ESE,115,2.0,2.0,91,0.00,,,0.00,WeatherCatV1.21B27,2013-10-10 12:05:00,
2013-10-10 08:07:00,55.8,53.2,30.33,SE,128,5.0,5.0,91,0.00,,,0.00,WeatherCatV1.21B27,2013-10-10 12:07:00,
2013-10-10 08:09:00,55.9,53.3,30.33,East,91,2.0,5.0,91,0.00,,,0.00,WeatherCatV1.21B27,2013-10-10 12:09:00,
2013-10-10 08:10:00,56.0,53.4,30.33,ESE,113,4.0,5.0,91,0.00,,,0.00,WeatherCatV1.21B27,2013-10-10 12:10:00,
2013-10-10 08:12:00,56.1,53.2,30.33,ESE,119,5.0,5.0,90,0.00,,,0.00,WeatherCatV1.21B27,2013-10-10 12:12:00,
2013-10-10 08:13:00,56.1,53.2,30.33,ESE,108,1.0,5.0,90,0.00,,,0.00,WeatherCatV1.21B27,2013-10-10 12:13:00,
2013-10-10 08:14:00,56.2,53.3,30.33,ESE,109,0.0,4.0,90,0.00,,,0.00,WeatherCatV1.21B27,2013-10-10 12:14:00,
2013-10-10 08:15:00,56.2,53.3,30.33,ESE,108,0.0,7.0,90,0.00,,,0.00,WeatherCatV1.21B27,2013-10-10 12:15:00,
2013-10-10 08:16:00,56.2,53.3,30.33,ESE,108,0.0,7.0,90,0.00,,,0.00,WeatherCatV1.21B27,2013-10-10 12:16:00,
2013-10-10 08:17:00,56.3,53.4,30.33,ESE,109,4.0,4.0,90,0.00,,,0.00,WeatherCatV1.21B27,2013-10-10 12:17:00,
2013-10-10 08:18:00,56.3,53.4,30.33,ESE,105,6.0,7.0,90,0.00,,,0.00,WeatherCatV1.21B27,2013-10-10 12:18:00,
2013-10-10 08:19:00,56.4,53.5,30.33,ESE,102,1.0,7.0,90,0.00,,,0.00,WeatherCatV1.21B27,2013-10-10 12:19:00,
2013-10-10 08:21:00,56.5,53.6,30.33,SE,128,4.0,5.0,90,0.00,,,0.00,WeatherCatV1.21B27,2013-10-10 12:21:00,
2013-10-10 08:22:00,56.7,53.8,30.33,ESE,121,4.0,5.0,90,0.00,,,0.00,WeatherCatV1.21B27,2013-10-10 12:22:00,
2013-10-10 08:23:00,56.8,53.9,30.33,East,91,2.0,6.0,90,0.00,,,0.00,WeatherCatV1.21B27,2013-10-10 12:23:00,
2013-10-10 08:24:00,56.9,54.0,30.33,SE,141,4.0,6.0,90,0.00,,,0.00,WeatherCatV1.21B27,2013-10-10 12:24:00,
2013-10-10 08:26:00,57.1,54.2,30.33,East,88,0.0,4.0,90,0.00,,,0.00,WeatherCatV1.21B27,2013-10-10 12:26:00,
2013-10-10 08:27:00,57.2,54.0,30.33,SSE,163,4.0,4.0,89,0.00,,,0.00,WeatherCatV1.21B27,2013-10-10 12:27:00,
2013-10-10 08:28:00,57.3,54.1,30.33,SSE,163,0.0,4.0,89,0.00,,,0.00,WeatherCatV1.21B27,2013-10-10 12:28:00,
2013-10-10 08:29:00,57.3,54.1,30.33,SSE,161,2.0,4.0,89,0.00,,,0.00,WeatherCatV1.21B27,2013-10-10 12:29:00,
2013-10-10 08:31:00,57.4,54.2,30.33,SSE,154,0.0,4.0,89,0.00,,,0.00,WeatherCatV1.21B27,2013-10-10 12:31:00,
2013-10-10 08:32:00,57.5,54.3,30.33,East,101,0.0,4.0,89,0.00,,,0.00,WeatherCatV1.21B27,2013-10-10 12:32:00,
2013-10-10 08:33:00,57.5,54.3,30.33,ESE,103,2.0,2.0,89,0.00,,,0.00,WeatherCatV1.21B27,2013-10-10 12:33:00,
2013-10-10 08:34:00,57.5,54.3,30.33,SE,127,2.0,8.0,89,0.00,,,0.00,WeatherCatV1.21B27,2013-10-10 12:34:00,
2013-10-10 08:36:00,57.6,54.4,30.33,East,82,5.0,8.0,89,0.00,,,0.00,WeatherCatV1.21B27,2013-10-10 12:36:00,
2013-10-10 08:37:00,57.6,54.4,30.33,ESE,109,4.0,8.0,89,0.00,,,0.00,WeatherCatV1.21B27,2013-10-10 12:37:00,
2013-10-10 08:38:00,57.6,54.4,30.33,ENE,68,2.0,8.0,89,0.00,,,0.00,WeatherCatV1.21B27,2013-10-10 12:38:00,
2013-10-10 08:39:00,57.7,54.2,30.33,East,80,5.0,7.0,88,0.00,,,0.00,WeatherCatV1.21B27,2013-10-10 12:39:00,
2013-10-10 08:41:00,57.9,54.7,30.33,SE,128,6.0,7.0,89,0.00,,,0.00,WeatherCatV1.21B27,2013-10-10 12:41:00,
2013-10-10 08:43:00,58.1,54.9,30.33,SE,140,1.0,6.0,89,0.00,,,0.00,WeatherCatV1.21B27,2013-10-10 12:43:00,
2013-10-10 08:44:00,58.3,55.1,30.33,East,92,9.0,9.0,89,0.00,,,0.00,WeatherCatV1.21B27,2013-10-10 12:44:00,
2013-10-10 08:45:00,58.4,54.9,30.33,SE,132,5.0,11.0,88,0.00,,,0.00,WeatherCatV1.21B27,2013-10-10 12:45:00,
2013-10-10 08:47:00,58.7,54.8,30.33,ESE,119,6.0,13.0,87,0.00,,,0.00,WeatherCatV1.21B27,2013-10-10 12:47:00,
2013-10-10 08:48:00,58.9,55.0,30.33,East,84,5.0,10.0,87,0.00,,,0.00,WeatherCatV1.21B27,2013-10-10 12:48:00,
2013-10-10 08:49:00,59.0,55.1,30.33,ESE,111,4.0,5.0,87,0.00,,,0.00,WeatherCatV1.21B27,2013-10-10 12:49:00,
2013-10-10 08:50:00,59.0,54.8,30.33,East,97,8.0,10.0,86,0.00,,,0.00,WeatherCatV1.21B27,2013-10-10 12:50:00,
2013-10-10 08:52:00,59.1,54.9,30.33,NE,53,4.0,8.0,86,0.00,,,0.00,WeatherCatV1.21B27,2013-10-10 12:52:00,
2013-10-10 08:53:00,59.1,55.2,30.33,SSE,159,0.0,4.0,87,0.00,,,0.00,WeatherCatV1.21B27,2013-10-10 12:53:00,
2013-10-10 08:54:00,59.1,54.9,30.33,SSE,158,4.0,7.0,86,0.00,,,0.00,WeatherCatV1.21B27,2013-10-10 12:54:00,
2013-10-10 08:55:00,59.2,55.3,30.33,SE,126,5.0,7.0,87,0.00,,,0.00,WeatherCatV1.21B27,2013-10-10 12:55:00,
2013-10-10 08:57:00,59.2,55.0,30.33,ESE,115,2.0,13.0,86,0.00,,,0.00,WeatherCatV1.21B27,2013-10-10 12:57:00,
2013-10-10 08:58:00,59.3,55.1,30.33,ESE,119,5.0,5.0,86,0.00,,,0.00,WeatherCatV1.21B27,2013-10-10 12:58:00,
2013-10-10 08:59:00,59.2,55.0,30.33,ESE,116,12.0,12.0,86,0.00,,,0.00,WeatherCatV1.21B27,2013-10-10 12:59:00,
2013-10-10 09:01:00,59.2,54.7,30.33,East,94,4.0,12.0,85,0.00,,,0.00,WeatherCatV1.21B27,2013-10-10 13:01:00,
2013-10-10 09:02:00,59.1,54.9,30.33,SE,134,2.0,8.0,86,0.00,,,0.00,WeatherCatV1.21B27,2013-10-10 13:02:00,
2013-10-10 09:03:00,59.1,54.9,30.33,SE,136,6.0,7.0,86,0.00,,,0.00,WeatherCatV1.21B27,2013-10-10 13:03:00,
2013-10-10 09:04:00,59.1,54.9,30.33,SE,142,5.0,7.0,86,0.00,,,0.00,WeatherCatV1.21B27,2013-10-10 13:04:00,
2013-10-10 09:06:00,59.1,54.9,30.33,ESE,115,7.0,12.0,86,0.00,,,0.00,WeatherCatV1.21B27,2013-10-10 13:06:00,
2013-10-10 09:07:00,59.1,54.9,30.33,SSE,157,5.0,9.0,86,0.00,,,0.00,WeatherCatV1.21B27,2013-10-10 13:07:00,
2013-10-10 09:08:00,59.1,54.9,30.33,South,183,5.0,9.0,86,0.00,,,0.00,WeatherCatV1.21B27,2013-10-10 13:08:00,
2013-10-10 09:09:00,59.1,54.9,30.33,SE,126,5.0,8.0,86,0.00,,,0.00,WeatherCatV1.21B27,2013-10-10 13:09:00,
2013-10-10 09:10:00,59.1,54.9,30.33,SSE,151,1.0,9.0,86,0.00,,,0.00,WeatherCatV1.21B27,2013-10-10 13:10:00,
2013-10-10 09:11:00,59.1,54.9,30.33,ENE,71,3.0,8.0,86,0.00,,,0.00,WeatherCatV1.21B27,2013-10-10 13:11:00,
2013-10-10 09:12:00,59.2,55.0,30.33,ESE,119,2.0,6.0,86,0.00,,,0.00,WeatherCatV1.21B27,2013-10-10 13:12:00,
2013-10-10 09:13:00,59.2,55.3,30.33,SE,132,6.0,7.0,87,0.00,,,0.00,WeatherCatV1.21B27,2013-10-10 13:13:00,
2013-10-10 09:14:00,59.3,55.4,30.32,SSE,148,2.0,7.0,87,0.00,,,0.00,WeatherCatV1.21B27,2013-10-10 13:14:00,
2013-10-10 09:15:00,59.3,55.1,30.33,SE,124,2.0,8.0,86,0.00,,,0.00,WeatherCatV1.21B27,2013-10-10 13:15:00,
2013-10-10 09:17:00,59.3,55.1,30.33,SSE,157,4.0,9.0,86,0.00,,,0.00,WeatherCatV1.21B27,2013-10-10 13:17:00,
2013-10-10 09:18:00,59.3,55.1,30.33,ESE,110,2.0,10.0,86,0.00,,,0.00,WeatherCatV1.21B27,2013-10-10 13:18:00,
2013-10-10 09:19:00,59.4,55.2,30.33,SE,143,5.0,10.0,86,0.00,,,0.00,WeatherCatV1.21B27,2013-10-10 13:19:00,
2013-10-10 09:21:00,59.4,55.2,30.33,SSE,149,4.0,12.0,86,0.00,,,0.00,WeatherCatV1.21B27,2013-10-10 13:21:00,
2013-10-10 09:22:00,59.4,55.2,30.33,East,96,6.0,12.0,86,0.00,,,0.00,WeatherCatV1.21B27,2013-10-10 13:22:00,
2013-10-10 09:23:00,59.4,55.2,30.33,ESE,119,2.0,6.0,86,0.00,,,0.00,WeatherCatV1.21B27,2013-10-10 13:23:00,
2013-10-10 09:24:00,59.5,55.3,30.33,ESE,107,2.0,7.0,86,0.00,,,0.00,WeatherCatV1.21B27,2013-10-10 13:24:00,
2013-10-10 09:25:00,59.5,55.3,30.33,East,99,2.0,7.0,86,0.00,,,0.00,WeatherCatV1.21B27,2013-10-10 13:25:00,
2013-10-10 09:26:00,59.5,55.3,30.33,ESE,120,6.0,6.0,86,0.00,,,0.00,WeatherCatV1.21B27,2013-10-10 13:26:00,
2013-10-10 09:27:00,59.6,55.4,30.33,ESE,107,2.0,6.0,86,0.00,,,0.00,WeatherCatV1.21B27,2013-10-10 13:27:00,
2013-10-10 09:29:00,59.7,55.5,30.33,ESE,111,0.0,4.0,86,0.00,,,0.00,WeatherCatV1.21B27,2013-10-10 13:29:00,
2013-10-10 09:30:00,59.8,55.6,30.33,NE,49,4.0,5.0,86,0.00,,,0.00,WeatherCatV1.21B27,2013-10-10 13:30:00,
2013-10-10 09:31:00,59.9,55.7,30.33,SSE,158,6.0,12.0,86,0.00,,,0.00,WeatherCatV1.21B27,2013-10-10 13:31:00,
2013-10-10 09:32:00,59.9,55.4,30.33,SSE,156,1.0,12.0,85,0.00,,,0.00,WeatherCatV1.21B27,2013-10-10 13:32:00,
2013-10-10 09:34:00,59.9,55.4,30.33,ESE,111,4.0,9.0,85,0.00,,,0.00,WeatherCatV1.21B27,2013-10-10 13:34:00,
2013-10-10 09:35:00,60.0,55.5,30.33,NE,52,4.0,8.0,85,0.00,,,0.00,WeatherCatV1.21B27,2013-10-10 13:35:00,
2013-10-10 09:37:00,60.0,55.2,30.33,South,169,7.0,11.0,84,0.00,,,0.00,WeatherCatV1.21B27,2013-10-10 13:37:00,
2013-10-10 09:39:00,60.0,55.5,30.33,SE,144,2.0,5.0,85,0.00,,,0.00,WeatherCatV1.21B27,2013-10-10 13:39:00,
2013-10-10 09:40:00,60.0,55.5,30.33,SE,144,0.0,5.0,85,0.00,,,0.00,WeatherCatV1.21B27,2013-10-10 13:40:00,
2013-10-10 09:42:00,60.2,56.0,30.33,SSE,167,5.0,6.0,86,0.00,,,0.00,WeatherCatV1.21B27,2013-10-10 13:42:00,
2013-10-10 09:44:00,60.3,55.8,30.33,East,86,2.0,6.0,85,0.00,,,0.00,WeatherCatV1.21B27,2013-10-10 13:44:00,
2013-10-10 09:45:00,60.3,55.4,30.33,SSE,148,5.0,6.0,84,0.00,,,0.00,WeatherCatV1.21B27,2013-10-10 13:45:00,
2013-10-10 09:47:00,60.3,55.8,30.33,ESE,123,5.0,5.0,85,0.00,,,0.00,WeatherCatV1.21B27,2013-10-10 13:47:00,
2013-10-10 09:49:00,60.4,55.5,30.33,ESE,117,6.0,7.0,84,0.00,,,0.00,WeatherCatV1.21B27,2013-10-10 13:49:00,
2013-10-10 09:50:00,60.4,55.5,30.33,SE,125,6.0,11.0,84,0.00,,,0.00,WeatherCatV1.21B27,2013-10-10 13:50:00,
2013-10-10 09:53:00,60.4,55.5,30.34,SE,138,2.0,8.0,84,0.00,,,0.00,WeatherCatV1.21B27,2013-10-10 13:53:00,
2013-10-10 09:54:00,60.5,55.6,30.34,ESE,119,1.0,10.0,84,0.00,,,0.00,WeatherCatV1.21B27,2013-10-10 13:54:00,
2013-10-10 09:55:00,60.6,55.7,30.34,SE,141,4.0,10.0,84,0.00,,,0.00,WeatherCatV1.21B27,2013-10-10 13:55:00,
2013-10-10 09:56:00,60.7,55.8,30.34,ENE,70,3.0,5.0,84,0.00,,,0.00,WeatherCatV1.21B27,2013-10-10 13:56:00,
2013-10-10 09:58:00,61.0,56.1,30.34,SSE,167,4.0,6.0,84,0.00,,,0.00,WeatherCatV1.21B27,2013-10-10 13:58:00,
2013-10-10 09:59:00,61.1,55.9,30.34,South,173,5.0,8.0,83,0.00,,,0.00,WeatherCatV1.21B27,2013-10-10 13:59:00,
2013-10-10 10:00:00,61.2,56.0,30.34,ESE,108,8.0,9.0,83,0.00,,,0.00,WeatherCatV1.21B27,2013-10-10 14:00:00,
2013-10-10 10:01:00,61.2,56.0,30.34,ENE,75,0.0,9.0,83,0.00,,,0.00,WeatherCatV1.21B27,2013-10-10 14:01:00,
2013-10-10 10:03:00,61.6,56.0,30.34,SE,146,2.0,8.0,82,0.00,,,0.00,WeatherCatV1.21B27,2013-10-10 14:03:00,
2013-10-10 10:04:00,61.7,56.1,30.34,South,172,6.0,7.0,82,0.00,,,0.00,WeatherCatV1.21B27,2013-10-10 14:04:00,
2013-10-10 10:05:00,61.7,55.8,30.34,SSE,149,5.0,9.0,81,0.00,,,0.00,WeatherCatV1.21B27,2013-10-10 14:05:00,
2013-10-10 10:06:00,61.7,55.8,30.34,SE,146,8.0,9.0,81,0.00,,,0.00,WeatherCatV1.21B27,2013-10-10 14:06:00,
2013-10-10 10:08:00,61.6,55.7,30.34,SSE,148,8.0,10.0,81,0.00,,,0.00,WeatherCatV1.21B27,2013-10-10 14:08:00,
2013-10-10 10:09:00,61.6,56.0,30.34,SSE,157,5.0,10.0,82,0.00,,,0.00,WeatherCatV1.21B27,2013-10-10 14:09:00,
2013-10-10 10:10:00,61.6,56.0,30.34,ESE,103,7.0,10.0,82,0.00,,,0.00,WeatherCatV1.21B27,2013-10-10 14:10:00,
2013-10-10 10:11:00,61.6,56.0,30.34,SE,144,2.0,8.0,82,0.00,,,0.00,WeatherCatV1.21B27,2013-10-10 14:11:00,
2013-10-10 10:13:00,61.6,55.7,30.34,ESE,121,5.0,8.0,81,0.00,,,0.00,WeatherCatV1.21B27,2013-10-10 14:13:00,
2013-10-10 10:14:00,61.6,55.7,30.34,South,181,4.0,7.0,81,0.00,,,0.00,WeatherCatV1.21B27,2013-10-10 14:14:00,
2013-10-10 10:15:00,61.8,56.2,30.34,East,98,5.0,6.0,82,0.00,,,0.00,WeatherCatV1.21B27,2013-10-10 14:15:00,
2013-10-10 10:16:00,61.8,56.2,30.34,ENE,74,3.0,6.0,82,0.00,,,0.00,WeatherCatV1.21B27,2013-10-10 14:16:00,
2013-10-10 10:18:00,62.2,56.3,30.34,NE,53,5.0,14.0,81,0.00,,,0.00,WeatherCatV1.21B27,2013-10-10 14:18:00,
2013-10-10 10:19:00,62.2,56.3,30.34,East,80,4.0,14.0,81,0.00,,,0.00,WeatherCatV1.21B27,2013-10-10 14:19:00,
2013-10-10 10:21:00,62.4,56.1,30.33,SSE,152,6.0,11.0,80,0.00,,,0.00,WeatherCatV1.21B27,2013-10-10 14:21:00,
2013-10-10 10:24:00,62.3,56.0,30.33,SSE,155,5.0,8.0,80,0.00,,,0.00,WeatherCatV1.21B27,2013-10-10 14:24:00,
2013-10-10 10:25:00,62.3,56.0,30.33,East,99,12.0,12.0,80,0.00,,,0.00,WeatherCatV1.21B27,2013-10-10 14:25:00,
2013-10-10 10:26:00,62.3,56.0,30.33,SE,143,6.0,12.0,80,0.00,,,0.00,WeatherCatV1.21B27,2013-10-10 14:26:00,
2013-10-10 10:27:00,62.2,56.0,30.33,ESE,111,2.0,11.0,80,0.00,,,0.00,WeatherCatV1.21B27,2013-10-10 14:27:00,
2013-10-10 10:29:00,62.1,55.8,30.33,SE,130,4.0,8.0,80,0.00,,,0.00,WeatherCatV1.21B27,2013-10-10 14:29:00,
2013-10-10 10:30:00,62.0,55.8,30.33,ESE,103,5.0,8.0,80,0.00,,,0.00,WeatherCatV1.21B27,2013-10-10 14:30:00,
2013-10-10 10:31:00,62.0,56.1,30.33,East,84,5.0,6.0,81,0.00,,,0.00,WeatherCatV1.21B27,2013-10-10 14:31:00,
2013-10-10 10:32:00,62.1,56.5,30.33,East,100,0.0,7.0,82,0.00,,,0.00,WeatherCatV1.21B27,2013-10-10 14:32:00,
2013-10-10 10:34:00,62.3,56.7,30.33,ESE,118,1.0,7.0,82,0.00,,,0.00,WeatherCatV1.21B27,2013-10-10 14:34:00,
2013-10-10 10:35:00,62.3,56.7,30.33,ESE,117,0.0,7.0,82,0.00,,,0.00,WeatherCatV1.21B27,2013-10-10 14:35:00,
2013-10-10 10:36:00,62.6,56.7,30.33,SE,136,6.0,8.0,81,0.00,,,0.00,WeatherCatV1.21B27,2013-10-10 14:36:00,
2013-10-10 10:37:00,62.7,56.4,30.33,SE,146,1.0,8.0,80,0.00,,,0.00,WeatherCatV1.21B27,2013-10-10 14:37:00,
2013-10-10 10:39:00,63.1,57.2,30.33,SSE,154,1.0,9.0,81,0.00,,,0.00,WeatherCatV1.21B27,2013-10-10 14:39:00,
2013-10-10 10:40:00,63.2,56.9,30.33,ESE,112,6.0,9.0,80,0.00,,,0.00,WeatherCatV1.21B27,2013-10-10 14:40:00,
2013-10-10 10:41:00,63.2,56.6,30.33,SE,129,1.0,11.0,79,0.00,,,0.00,WeatherCatV1.21B27,2013-10-10 14:41:00,
2013-10-10 10:42:00,63.3,56.7,30.32,SE,128,2.0,11.0,79,0.00,,,0.00,WeatherCatV1.21B27,2013-10-10 14:42:00,
2013-10-10 10:44:00,63.5,56.9,30.32,ESE,111,4.0,9.0,79,0.00,,,0.00,WeatherCatV1.21B27,2013-10-10 14:44:00,
2013-10-10 10:45:00,63.5,56.9,30.32,ESE,111,0.0,4.0,79,0.00,,,0.00,WeatherCatV1.21B27,2013-10-10 14:45:00,
2013-10-10 10:46:00,63.6,57.3,30.32,NNW,336,5.0,7.0,80,0.00,,,0.00,WeatherCatV1.21B27,2013-10-10 14:46:00,
2013-10-10 10:47:00,63.6,57.0,30.32,NE,55,2.0,7.0,79,0.00,,,0.00,WeatherCatV1.21B27,2013-10-10 14:47:00,
2013-10-10 10:50:00,63.6,56.6,30.32,NNE,15,4.0,10.0,78,0.00,,,0.00,WeatherCatV1.21B27,2013-10-10 14:50:00,
2013-10-10 10:51:00,63.6,57.0,30.32,NE,39,3.0,7.0,79,0.00,,,0.00,WeatherCatV1.21B27,2013-10-10 14:51:00,
2013-10-10 10:52:00,63.5,56.9,30.32,East,92,6.0,7.0,79,0.00,,,0.00,WeatherCatV1.21B27,2013-10-10 14:52:00,
2013-10-10 10:55:00,63.6,56.6,30.32,SSE,148,1.0,8.0,78,0.00,,,0.00,WeatherCatV1.21B27,2013-10-10 14:55:00,
2013-10-10 10:56:00,63.5,56.5,30.32,SSE,166,5.0,8.0,78,0.00,,,0.00,WeatherCatV1.21B27,2013-10-10 14:56:00,
2013-10-10 10:57:00,63.5,56.5,30.32,SSE,167,6.0,12.0,78,0.00,,,0.00,WeatherCatV1.21B27,2013-10-10 14:57:00,
2013-10-10 10:58:00,63.4,56.4,30.32,SE,127,8.0,12.0,78,0.00,,,0.00,WeatherCatV1.21B27,2013-10-10 14:58:00,
2013-10-10 11:00:00,63.2,56.6,30.32,ESE,114,4.0,7.0,79,0.00,,,0.00,WeatherCatV1.21B27,2013-10-10 15:00:00,
2013-10-10 11:01:00,63.2,56.6,30.32,SE,137,8.0,9.0,79,0.00,,,0.00,WeatherCatV1.21B27,2013-10-10 15:01:00,
2013-10-10 11:02:00,63.2,56.6,30.32,NE,49,3.0,9.0,79,0.00,,,0.00,WeatherCatV1.21B27,2013-10-10 15:02:00,
2013-10-10 11:03:00,63.2,56.9,30.32,East,87,7.0,8.0,80,0.00,,,0.00,WeatherCatV1.21B27,2013-10-10 15:03:00,
2013-10-10 11:05:00,63.1,56.5,30.32,SE,126,12.0,12.0,79,0.00,,,0.00,WeatherCatV1.21B27,2013-10-10 15:05:00,
2013-10-10 11:06:00,63.1,56.5,30.32,East,97,5.0,12.0,79,0.00,,,0.00,WeatherCatV1.21B27,2013-10-10 15:06:00,
2013-10-10 11:07:00,62.9,56.3,30.32,SE,144,4.0,12.0,79,0.00,,,0.00,WeatherCatV1.21B27,2013-10-10 15:07:00,
2013-10-10 11:08:00,62.8,56.2,30.32,SE,132,2.0,6.0,79,0.00,,,0.00,WeatherCatV1.21B27,2013-10-10 15:08:00,
2013-10-10 11:11:00,62.7,56.4,30.32,SSE,157,7.0,7.0,80,0.00,,,0.00,WeatherCatV1.21B27,2013-10-10 15:11:00,
2013-10-10 11:12:00,62.7,56.4,30.32,ESE,119,4.0,7.0,80,0.00,,,0.00,WeatherCatV1.21B27,2013-10-10 15:12:00,
2013-10-10 11:13:00,62.7,56.4,30.32,ENE,74,3.0,7.0,80,0.00,,,0.00,WeatherCatV1.21B27,2013-10-10 15:13:00,
2013-10-10 11:16:00,62.7,56.4,30.32,East,84,4.0,11.0,80,0.00,,,0.00,WeatherCatV1.21B27,2013-10-10 15:16:00,
2013-10-10 11:17:00,62.7,56.8,30.32,East,85,7.0,7.0,81,0.00,,,0.00,WeatherCatV1.21B27,2013-10-10 15:17:00,
2013-10-10 11:18:00,62.7,56.8,30.32,ESE,104,5.0,11.0,81,0.00,,,0.00,WeatherCatV1.21B27,2013-10-10 15:18:00,
2013-10-10 11:19:00,62.8,56.9,30.32,East,88,5.0,11.0,81,0.00,,,0.00,WeatherCatV1.21B27,2013-10-10 15:19:00,
2013-10-10 11:21:00,62.9,57.0,30.32,East,96,5.0,9.0,81,0.00,,,0.00,WeatherCatV1.21B27,2013-10-10 15:21:00,
2013-10-10 11:22:00,63.0,56.7,30.32,SSE,164,5.0,8.0,80,0.00,,,0.00,WeatherCatV1.21B27,2013-10-10 15:22:00,
2013-10-10 11:23:00,63.0,56.7,30.32,South,174,2.0,8.0,80,0.00,,,0.00,WeatherCatV1.21B27,2013-10-10 15:23:00,
2013-10-10 11:25:00,63.1,56.8,30.32,East,87,8.0,9.0,80,0.00,,,0.00,WeatherCatV1.21B27,2013-10-10 15:25:00,
2013-10-10 11:26:00,63.1,57.2,30.32,SSE,161,2.0,11.0,81,0.00,,,0.00,WeatherCatV1.21B27,2013-10-10 15:26:00,
2013-10-10 11:27:00,63.1,57.2,30.32,ENE,63,5.0,7.0,81,0.00,,,0.00,WeatherCatV1.21B27,2013-10-10 15:27:00,
2013-10-10 11:28:00,63.2,56.9,30.32,NE,50,6.0,8.0,80,0.00,,,0.00,WeatherCatV1.21B27,2013-10-10 15:28:00,
2013-10-10 11:29:00,63.4,57.5,30.32,East,87,6.0,6.0,81,0.00,,,0.00,WeatherCatV1.21B27,2013-10-10 15:29:00,
2013-10-10 11:30:00,63.5,57.6,30.32,SE,144,4.0,7.0,81,0.00,,,0.00,WeatherCatV1.21B27,2013-10-10 15:30:00,
2013-10-10 11:31:00,63.6,57.0,30.32,SE,136,4.0,7.0,79,0.00,,,0.00,WeatherCatV1.21B27,2013-10-10 15:31:00,
2013-10-10 11:33:00,63.7,57.1,30.32,East,93,1.0,8.0,79,0.00,,,0.00,WeatherCatV1.21B27,2013-10-10 15:33:00,
2013-10-10 11:34:00,63.7,57.1,30.32,SSE,154,5.0,11.0,79,0.00,,,0.00,WeatherCatV1.21B27,2013-10-10 15:34:00,
2013-10-10 11:35:00,63.7,56.7,30.32,SSE,163,4.0,11.0,78,0.00,,,0.00,WeatherCatV1.21B27,2013-10-10 15:35:00,
2013-10-10 11:37:00,63.5,56.9,30.32,SE,144,1.0,8.0,79,0.00,,,0.00,WeatherCatV1.21B27,2013-10-10 15:37:00,
2013-10-10 11:38:00,63.4,56.8,30.32,East,91,5.0,8.0,79,0.00,,,0.00,WeatherCatV1.21B27,2013-10-10 15:38:00,
2013-10-10 11:40:00,63.3,56.7,30.32,East,96,5.0,12.0,79,0.00,,,0.00,WeatherCatV1.21B27,2013-10-10 15:40:00,
2013-10-10 11:42:00,63.2,56.6,30.32,SE,141,2.0,8.0,79,0.00,,,0.00,WeatherCatV1.21B27,2013-10-10 15:42:00,
2013-10-10 11:43:00,63.3,57.0,30.32,East,92,0.0,4.0,80,0.00,,,0.00,WeatherCatV1.21B27,2013-10-10 15:43:00,
2013-10-10 11:44:00,63.4,57.5,30.32,South,173,5.0,7.0,81,0.00,,,0.00,WeatherCatV1.21B27,2013-10-10 15:44:00,
2013-10-10 11:45:00,63.6,57.3,30.32,NE,35,2.0,8.0,80,0.00,,,0.00,WeatherCatV1.21B27,2013-10-10 15:45:00,
2013-10-10 11:47:00,63.9,57.2,30.32,ESE,109,7.0,7.0,79,0.00,,,0.00,WeatherCatV1.21B27,2013-10-10 15:47:00,
2013-10-10 11:48:00,64.1,57.5,30.32,SSE,155,5.0,9.0,79,0.00,,,0.00,WeatherCatV1.21B27,2013-10-10 15:48:00,
2013-10-10 11:49:00,64.2,57.5,30.32,SE,138,2.0,9.0,79,0.00,,,0.00,WeatherCatV1.21B27,2013-10-10 15:49:00,
2013-10-10 11:50:00,64.3,57.6,30.31,East,94,2.0,5.0,79,0.00,,,0.00,WeatherCatV1.21B27,2013-10-10 15:50:00,
2013-10-10 11:51:00,64.4,57.7,30.31,East,94,8.0,8.0,79,0.00,,,0.00,WeatherCatV1.21B27,2013-10-10 15:51:00,
2013-10-10 11:52:00,64.6,57.9,30.31,SSE,150,1.0,8.0,79,0.00,,,0.00,WeatherCatV1.21B27,2013-10-10 15:52:00,
2013-10-10 11:53:00,65.0,58.3,30.31,ESE,103,7.0,7.0,79,0.00,,,0.00,WeatherCatV1.21B27,2013-10-10 15:53:00,
2013-10-10 11:54:00,65.2,58.2,30.31,NNE,26,2.0,9.0,78,0.00,,,0.00,WeatherCatV1.21B27,2013-10-10 15:54:00,
2013-10-10 11:55:00,65.4,58.0,30.31,East,94,6.0,11.0,77,0.00,,,0.00,WeatherCatV1.21B27,2013-10-10 15:55:00,
2013-10-10 11:56:00,65.5,57.7,30.31,ENE,76,11.0,11.0,76,0.00,,,0.00,WeatherCatV1.21B27,2013-10-10 15:56:00,
2013-10-10 11:57:00,65.5,57.7,30.31,ESE,123,0.0,11.0,76,0.00,,,0.00,WeatherCatV1.21B27,2013-10-10 15:57:00,
2013-10-10 11:59:00,65.6,58.2,30.30,ESE,113,8.0,13.0,77,0.00,,,0.00,WeatherCatV1.21B27,2013-10-10 15:59:00,
2013-10-10 12:00:00,65.6,57.8,30.30,SE,127,9.0,13.0,76,0.00,,,0.00,WeatherCatV1.21B27,2013-10-10 16:00:00,
2013-10-10 12:01:00,65.6,57.8,30.30,East,101,6.0,14.0,76,0.00,,,0.00,WeatherCatV1.21B27,2013-10-10 16:01:00,
2013-10-10 12:02:00,65.5,57.7,30.30,East,84,1.0,14.0,76,0.00,,,0.00,WeatherCatV1.21B27,2013-10-10 16:02:00,
2013-10-10 12:04:00,65.3,57.5,30.30,SSE,161,6.0,8.0,76,0.00,,,0.00,WeatherCatV1.21B27,2013-10-10 16:04:00,
2013-10-10 12:05:00,65.2,57.1,30.30,SE,126,2.0,8.0,75,0.00,,,0.00,WeatherCatV1.21B27,2013-10-10 16:05:00,
2013-10-10 12:06:00,65.0,57.6,30.30,South,171,5.0,8.0,77,0.00,,,0.00,WeatherCatV1.21B27,2013-10-10 16:06:00,
2013-10-10 12:07:00,64.8,57.0,30.30,SSE,155,7.0,8.0,76,0.00,,,0.00,WeatherCatV1.21B27,2013-10-10 16:07:00,
2013-10-10 12:09:00,64.2,56.8,30.30,ESE,105,7.0,15.0,77,0.00,,,0.00,WeatherCatV1.21B27,2013-10-10 16:09:00,
2013-10-10 12:10:00,64.2,56.8,30.30,ESE,113,6.0,15.0,77,0.00,,,0.00,WeatherCatV1.21B27,2013-10-10 16:10:00,
2013-10-10 12:11:00,64.0,56.6,30.30,NNE,21,9.0,15.0,77,0.00,,,0.00,WeatherCatV1.21B27,2013-10-10 16:11:00,
2013-10-10 12:12:00,63.8,56.8,30.30,East,94,2.0,9.0,78,0.00,,,0.00,WeatherCatV1.21B27,2013-10-10 16:12:00,
2013-10-10 12:15:00,63.5,56.5,30.30,SSE,165,2.0,11.0,78,0.00,,,0.00,WeatherCatV1.21B27,2013-10-10 16:15:00,
2013-10-10 12:16:00,63.5,56.9,30.30,ESE,109,11.0,11.0,79,0.00,,,0.00,WeatherCatV1.21B27,2013-10-10 16:16:00,
2013-10-10 12:17:00,63.4,56.8,30.30,East,80,13.0,16.0,79,0.00,,,0.00,WeatherCatV1.21B27,2013-10-10 16:17:00,
2013-10-10 12:20:00,63.2,56.9,30.30,SE,142,6.0,9.0,80,0.00,,,0.00,WeatherCatV1.21B27,2013-10-10 16:20:00,
2013-10-10 12:21:00,63.3,57.0,30.30,SE,138,17.0,17.0,80,0.00,,,0.00,WeatherCatV1.21B27,2013-10-10 16:21:00,
2013-10-10 12:23:00,63.4,57.1,30.30,East,90,13.0,17.0,80,0.00,,,0.00,WeatherCatV1.21B27,2013-10-10 16:23:00,
2013-10-10 12:24:00,63.5,56.9,30.29,East,89,7.0,12.0,79,0.00,,,0.00,WeatherCatV1.21B27,2013-10-10 16:24:00,
2013-10-10 12:26:00,63.6,57.0,30.29,ESE,107,2.0,7.0,79,0.00,,,0.00,WeatherCatV1.21B27,2013-10-10 16:26:00,
2013-10-10 12:28:00,63.9,57.6,30.29,East,82,4.0,12.0,80,0.00,,,0.00,WeatherCatV1.21B27,2013-10-10 16:28:00,
2013-10-10 12:29:00,64.0,57.3,30.29,SE,135,4.0,11.0,79,0.00,,,0.00,WeatherCatV1.21B27,2013-10-10 16:29:00,
2013-10-10 12:31:00,64.1,57.1,30.29,ENE,69,2.0,14.0,78,0.00,,,0.00,WeatherCatV1.21B27,2013-10-10 16:31:00,
2013-10-10 12:32:00,64.0,57.0,30.29,SSE,150,8.0,14.0,78,0.00,,,0.00,WeatherCatV1.21B27,2013-10-10 16:32:00,
2013-10-10 12:33:00,63.9,56.9,30.29,NE,41,8.0,14.0,78,0.00,,,0.00,WeatherCatV1.21B27,2013-10-10 16:33:00,
2013-10-10 12:34:00,63.9,56.9,30.29,SSE,156,5.0,14.0,78,0.00,,,0.00,WeatherCatV1.21B27,2013-10-10 16:34:00,
2013-10-10 12:36:00,63.7,57.1,30.29,SE,130,4.0,11.0,79,0.00,,,0.00,WeatherCatV1.21B27,2013-10-10 16:36:00,
2013-10-10 12:37:00,63.7,57.1,30.29,SE,142,2.0,11.0,79,0.00,,,0.00,WeatherCatV1.21B27,2013-10-10 16:37:00,
2013-10-10 12:38:00,63.7,57.1,30.29,ESE,106,6.0,13.0,79,0.00,,,0.00,WeatherCatV1.21B27,2013-10-10 16:38:00,
2013-10-10 12:39:00,63.8,57.2,30.29,East,82,14.0,14.0,79,0.00,,,0.00,WeatherCatV1.21B27,2013-10-10 16:39:00,
2013-10-10 12:41:00,63.8,56.8,30.29,SE,125,7.0,15.0,78,0.00,,,0.00,WeatherCatV1.21B27,2013-10-10 16:41:00,
2013-10-10 12:42:00,63.8,56.8,30.29,South,175,0.0,15.0,78,0.00,,,0.00,WeatherCatV1.21B27,2013-10-10 16:42:00,
2013-10-10 12:43:00,63.7,56.7,30.29,NNW,332,1.0,9.0,78,0.00,,,0.00,WeatherCatV1.21B27,2013-10-10 16:43:00,
2013-10-10 12:44:00,63.7,57.1,30.29,SE,146,8.0,9.0,79,0.00,,,0.00,WeatherCatV1.21B27,2013-10-10 16:44:00,
2013-10-10 12:47:00,63.7,56.7,30.29,ENE,74,5.0,14.0,78,0.00,,,0.00,WeatherCatV1.21B27,2013-10-10 16:47:00,
2013-10-10 12:48:00,63.6,56.6,30.29,East,97,7.0,9.0,78,0.00,,,0.00,WeatherCatV1.21B27,2013-10-10 16:48:00,
2013-10-10 12:50:00,63.6,56.6,30.28,SE,145,6.0,9.0,78,0.00,,,0.00,WeatherCatV1.21B27,2013-10-10 16:50:00,
2013-10-10 12:52:00,63.7,57.1,30.28,SSE,165,4.0,11.0,79,0.00,,,0.00,WeatherCatV1.21B27,2013-10-10 16:52:00,
2013-10-10 12:53:00,63.8,57.2,30.28,East,85,6.0,10.0,79,0.00,,,0.00,WeatherCatV1.21B27,2013-10-10 16:53:00,
2013-10-10 12:54:00,63.9,57.2,30.28,SE,134,5.0,12.0,79,0.00,,,0.00,WeatherCatV1.21B27,2013-10-10 16:54:00,
2013-10-10 12:55:00,64.0,57.3,30.28,ESE,110,9.0,12.0,79,0.00,,,0.00,WeatherCatV1.21B27,2013-10-10 16:55:00,
2013-10-10 12:57:00,64.3,57.6,30.28,ESE,107,2.0,5.0,79,0.00,,,0.00,WeatherCatV1.21B27,2013-10-10 16:57:00,
2013-10-10 12:58:00,64.4,57.7,30.28,ENE,60,11.0,11.0,79,0.00,,,0.00,WeatherCatV1.21B27,2013-10-10 16:58:00,
2013-10-10 12:59:00,64.6,57.9,30.28,NE,40,8.0,11.0,79,0.00,,,0.00,WeatherCatV1.21B27,2013-10-10 16:59:00,
2013-10-10 13:00:00,64.8,58.1,30.28,ESE,105,4.0,8.0,79,0.00,,,0.00,WeatherCatV1.21B27,2013-10-10 17:00:00,
2013-10-10 13:02:00,65.0,57.6,30.28,SSE,165,8.0,12.0,77,0.00,,,0.00,WeatherCatV1.21B27,2013-10-10 17:02:00,
2013-10-10 13:03:00,65.0,57.6,30.28,SSE,157,2.0,8.0,77,0.00,,,0.00,WeatherCatV1.21B27,2013-10-10 17:03:00,
2013-10-10 13:04:00,64.9,57.5,30.28,East,96,6.0,12.0,77,0.00,,,0.00,WeatherCatV1.21B27,2013-10-10 17:04:00,
2013-10-10 13:05:00,64.7,57.0,30.28,SE,136,4.0,12.0,76,0.00,,,0.00,WeatherCatV1.21B27,2013-10-10 17:05:00,
2013-10-10 13:08:00,64.2,56.8,30.28,ESE,115,6.0,8.0,77,0.00,,,0.00,WeatherCatV1.21B27,2013-10-10 17:08:00,
2013-10-10 13:09:00,64.0,56.6,30.28,East,95,5.0,11.0,77,0.00,,,0.00,WeatherCatV1.21B27,2013-10-10 17:09:00,
2013-10-10 13:10:00,63.8,56.8,30.28,ENE,70,3.0,12.0,78,0.00,,,0.00,WeatherCatV1.21B27,2013-10-10 17:10:00,
2013-10-10 13:13:00,63.6,56.6,30.29,NE,55,11.0,12.0,78,0.00,,,0.00,WeatherCatV1.21B27,2013-10-10 17:13:00,
2013-10-10 13:14:00,63.5,56.9,30.29,ESE,113,6.0,11.0,79,0.00,,,0.00,WeatherCatV1.21B27,2013-10-10 17:14:00,
2013-10-10 13:15:00,63.4,56.8,30.29,SE,144,2.0,6.0,79,0.00,,,0.00,WeatherCatV1.21B27,2013-10-10 17:15:00,
2013-10-10 13:18:00,63.4,57.1,30.29,East,96,7.0,12.0,80,0.00,,,0.00,WeatherCatV1.21B27,2013-10-10 17:18:00,
2013-10-10 13:19:00,63.4,56.8,30.29,East,93,5.0,8.0,79,0.00,,,0.00,WeatherCatV1.21B27,2013-10-10 17:19:00,
2013-10-10 13:21:00,63.3,57.0,30.29,SE,140,9.0,12.0,80,0.00,,,0.00,WeatherCatV1.21B27,2013-10-10 17:21:00,
2013-10-10 13:23:00,63.4,57.1,30.29,SE,140,5.0,8.0,80,0.00,,,0.00,WeatherCatV1.21B27,2013-10-10 17:23:00,
2013-10-10 13:24:00,63.4,57.1,30.29,ENE,74,1.0,12.0,80,0.00,,,0.00,WeatherCatV1.21B27,2013-10-10 17:24:00,
2013-10-10 13:25:00,63.5,57.2,30.29,SSE,153,4.0,12.0,80,0.00,,,0.00,WeatherCatV1.21B27,2013-10-10 17:25:00,
2013-10-10 13:26:00,63.6,57.3,30.29,ESE,121,4.0,12.0,80,0.00,,,0.00,WeatherCatV1.21B27,2013-10-10 17:26:00,
2013-10-10 13:28:00,63.7,57.1,30.29,SSE,162,5.0,13.0,79,0.00,,,0.00,WeatherCatV1.21B27,2013-10-10 17:28:00,
2013-10-10 13:29:00,63.7,57.1,30.29,SE,144,4.0,13.0,79,0.00,,,0.00,WeatherCatV1.21B27,2013-10-10 17:29:00,
2013-10-10 13:30:00,63.7,57.1,30.29,East,88,5.0,13.0,79,0.00,,,0.00,WeatherCatV1.21B27,2013-10-10 17:30:00,
2013-10-10 13:31:00,63.7,56.7,30.28,East,96,6.0,9.0,78,0.00,,,0.00,WeatherCatV1.21B27,2013-10-10 17:31:00,
2013-10-10 13:34:00,63.7,56.7,30.28,SSE,159,2.0,9.0,78,0.00,,,0.00,WeatherCatV1.21B27,2013-10-10 17:34:00,
2013-10-10 13:35:00,63.7,56.7,30.28,SSW,194,3.0,8.0,78,0.00,,,0.00,WeatherCatV1.21B27,2013-10-10 17:35:00,
2013-10-10 13:36:00,63.8,57.2,30.29,ESE,116,0.0,5.0,79,0.00,,,0.00,WeatherCatV1.21B27,2013-10-10 17:36:00,
2013-10-10 13:39:00,64.0,57.3,30.28,ENE,58,3.0,8.0,79,0.00,,,0.00,WeatherCatV1.21B27,2013-10-10 17:39:00,
2013-10-10 13:40:00,64.1,57.5,30.28,ESE,107,6.0,15.0,79,0.00,,,0.00,WeatherCatV1.21B27,2013-10-10 17:40:00,
2013-10-10 13:41:00,64.1,57.1,30.28,SE,137,7.0,9.0,78,0.00,,,0.00,WeatherCatV1.21B27,2013-10-10 17:41:00,
2013-10-10 13:44:00,64.0,57.3,30.28,ESE,110,2.0,7.0,79,0.00,,,0.00,WeatherCatV1.21B27,2013-10-10 17:44:00,
2013-10-10 13:45:00,64.0,57.0,30.28,NNE,17,1.0,9.0,78,0.00,,,0.00,WeatherCatV1.21B27,2013-10-10 17:45:00,
2013-10-10 13:47:00,63.9,57.2,30.28,ESE,110,0.0,11.0,79,0.00,,,0.00,WeatherCatV1.21B27,2013-10-10 17:47:00,
2013-10-10 13:49:00,63.9,56.9,30.28,East,93,6.0,12.0,78,0.00,,,0.00,WeatherCatV1.21B27,2013-10-10 17:49:00,
2013-10-10 13:50:00,63.8,56.8,30.28,East,92,7.0,12.0,78,0.00,,,0.00,WeatherCatV1.21B27,2013-10-10 17:50:00,
2013-10-10 13:52:00,63.6,56.6,30.28,SSE,149,6.0,12.0,78,0.00,,,0.00,WeatherCatV1.21B27,2013-10-10 17:52:00,
2013-10-10 13:54:00,63.3,56.7,30.27,SSE,148,4.0,13.0,79,0.00,,,0.00,WeatherCatV1.21B27,2013-10-10 17:54:00,
2013-10-10 13:55:00,63.3,56.7,30.27,SSE,157,5.0,13.0,79,0.00,,,0.00,WeatherCatV1.21B27,2013-10-10 17:55:00,
2013-10-10 13:56:00,63.2,56.6,30.27,East,98,2.0,13.0,79,0.00,,,0.00,WeatherCatV1.21B27,2013-10-10 17:56:00,
2013-10-10 13:57:00,63.1,56.8,30.27,SE,144,7.0,7.0,80,0.00,,,0.00,WeatherCatV1.21B27,2013-10-10 17:57:00,
2013-10-10 13:59:00,63.0,56.7,30.27,ENE,74,4.0,9.0,80,0.00,,,0.00,WeatherCatV1.21B27,2013-10-10 17:59:00,
2013-10-10 14:00:00,63.0,56.7,30.27,SE,140,2.0,9.0,80,0.00,,,0.00,WeatherCatV1.21B27,2013-10-10 18:00:00,
2013-10-10 14:01:00,63.0,57.1,30.27,SSE,152,6.0,6.0,81,0.00,,,0.00,WeatherCatV1.21B27,2013-10-10 18:01:00,
2013-10-10 14:02:00,63.0,57.1,30.27,SE,138,4.0,7.0,81,0.00,,,0.00,WeatherCatV1.21B27,2013-10-10 18:02:00,
2013-10-10 14:04:00,62.9,57.0,30.27,SE,131,2.0,2.0,81,0.00,,,0.00,WeatherCatV1.21B27,2013-10-10 18:04:00,
2013-10-10 14:05:00,62.9,57.0,30.27,SE,128,11.0,11.0,81,0.00,,,0.00,WeatherCatV1.21B27,2013-10-10 18:05:00,
2013-10-10 14:06:00,62.9,56.6,30.27,ESE,121,2.0,11.0,80,0.00,,,0.00,WeatherCatV1.21B27,2013-10-10 18:06:00,
2013-10-10 14:07:00,62.9,57.0,30.27,ESE,122,7.0,11.0,81,0.00,,,0.00,WeatherCatV1.21B27,2013-10-10 18:07:00,
2013-10-10 14:09:00,62.7,56.4,30.27,East,87,2.0,12.0,80,0.00,,,0.00,WeatherCatV1.21B27,2013-10-10 18:09:00,
2013-10-10 14:11:00,62.7,56.8,30.27,ESE,123,2.0,13.0,81,0.00,,,0.00,WeatherCatV1.21B27,2013-10-10 18:11:00,
2013-10-10 14:12:00,62.7,56.8,30.27,ENE,73,4.0,13.0,81,0.00,,,0.00,WeatherCatV1.21B27,2013-10-10 18:12:00,
2013-10-10 14:13:00,62.7,56.8,30.27,ESE,107,6.0,6.0,81,0.00,,,0.00,WeatherCatV1.21B27,2013-10-10 18:13:00,
2013-10-10 14:16:00,62.7,57.1,30.27,NNE,26,4.0,6.0,82,0.00,,,0.00,WeatherCatV1.21B27,2013-10-10 18:16:00,
2013-10-10 14:17:00,62.7,57.1,30.27,ESE,107,2.0,8.0,82,0.00,,,0.00,WeatherCatV1.21B27,2013-10-10 18:17:00,
2013-10-10 14:18:00,62.7,56.8,30.27,SSE,148,5.0,8.0,81,0.00,,,0.00,WeatherCatV1.21B27,2013-10-10 18:18:00,
2013-10-10 14:21:00,62.6,57.0,30.28,SSE,150,4.0,6.0,82,0.00,,,0.00,WeatherCatV1.21B27,2013-10-10 18:21:00,
2013-10-10 14:22:00,62.5,56.9,30.28,East,96,2.0,6.0,82,0.00,,,0.00,WeatherCatV1.21B27,2013-10-10 18:22:00,
2013-10-10 14:23:00,62.5,56.9,30.28,ENE,71,3.0,5.0,82,0.00,,,0.00,WeatherCatV1.21B27,2013-10-10 18:23:00,
2013-10-10 14:26:00,62.5,56.9,30.28,NE,49,2.0,4.0,82,0.00,,,0.00,WeatherCatV1.21B27,2013-10-10 18:26:00,
2013-10-10 14:27:00,62.6,57.0,30.28,ESE,121,4.0,4.0,82,0.00,,,0.00,WeatherCatV1.21B27,2013-10-10 18:27:00,
2013-10-10 14:29:00,62.5,56.9,30.28,ESE,119,1.0,8.0,82,0.00,,,0.00,WeatherCatV1.21B27,2013-10-10 18:29:00,
2013-10-10 14:31:00,62.5,56.9,30.28,ESE,122,8.0,8.0,82,0.00,,,0.00,WeatherCatV1.21B27,2013-10-10 18:31:00,
2013-10-10 14:32:00,62.4,56.8,30.28,SE,134,0.0,8.0,82,0.00,,,0.00,WeatherCatV1.21B27,2013-10-10 18:32:00,
2013-10-10 14:33:00,62.4,56.8,30.28,SE,134,4.0,8.0,82,0.00,,,0.00,WeatherCatV1.21B27,2013-10-10 18:33:00,
2013-10-10 14:34:00,62.3,56.7,30.28,ESE,118,4.0,9.0,82,0.00,,,0.00,WeatherCatV1.21B27,2013-10-10 18:34:00,
2013-10-10 14:36:00,62.2,57.0,30.28,NE,46,2.0,9.0,83,0.00,,,0.00,WeatherCatV1.21B27,2013-10-10 18:36:00,
2013-10-10 14:37:00,62.2,56.6,30.28,East,89,5.0,9.0,82,0.00,,,0.00,WeatherCatV1.21B27,2013-10-10 18:37:00,
2013-10-10 14:38:00,62.2,56.6,30.28,SE,126,5.0,8.0,82,0.00,,,0.00,WeatherCatV1.21B27,2013-10-10 18:38:00,
2013-10-10 14:39:00,62.2,57.0,30.28,ESE,121,5.0,8.0,83,0.00,,,0.00,WeatherCatV1.21B27,2013-10-10 18:39:00,
2013-10-10 14:41:00,62.2,57.0,30.28,ESE,112,5.0,9.0,83,0.00,,,0.00,WeatherCatV1.21B27,2013-10-10 18:41:00,
2013-10-10 14:42:00,62.2,57.0,30.28,East,95,7.0,9.0,83,0.00,,,0.00,WeatherCatV1.21B27,2013-10-10 18:42:00,
2013-10-10 14:43:00,62.1,56.9,30.28,East,98,8.0,8.0,83,0.00,,,0.00,WeatherCatV1.21B27,2013-10-10 18:43:00,
2013-10-10 14:45:00,62.1,56.9,30.28,East,100,4.0,8.0,83,0.00,,,0.00,WeatherCatV1.21B27,2013-10-10 18:45:00,
2013-10-10 14:46:00,62.2,57.0,30.28,ENE,71,1.0,6.0,83,0.00,,,0.00,WeatherCatV1.21B27,2013-10-10 18:46:00,
2013-10-10 14:47:00,62.2,57.0,30.28,ENE,72,5.0,7.0,83,0.00,,,0.00,WeatherCatV1.21B27,2013-10-10 18:47:00,
2013-10-10 14:48:00,62.2,57.0,30.27,ENE,69,3.0,7.0,83,0.00,,,0.00,WeatherCatV1.21B27,2013-10-10 18:48:00,
2013-10-10 14:49:00,62.2,57.0,30.27,NE,35,2.0,7.0,83,0.00,,,0.00,WeatherCatV1.21B27,2013-10-10 18:49:00,
2013-10-10 14:51:00,62.2,57.0,30.27,SE,126,2.0,8.0,83,0.00,,,0.00,WeatherCatV1.21B27,2013-10-10 18:51:00,
2013-10-10 14:52:00,62.2,57.0,30.27,NE,48,0.0,8.0,83,0.00,,,0.00,WeatherCatV1.21B27,2013-10-10 18:52:00,
2013-10-10 14:53:00,62.2,57.0,30.27,ESE,113,4.0,7.0,83,0.00,,,0.00,WeatherCatV1.21B27,2013-10-10 18:53:00,
2013-10-10 14:54:00,62.2,57.0,30.27,ENE,73,2.0,7.0,83,0.00,,,0.00,WeatherCatV1.21B27,2013-10-10 18:54:00,
2013-10-10 14:56:00,62.1,56.9,30.27,ESE,123,8.0,8.0,83,0.00,,,0.00,WeatherCatV1.21B27,2013-10-10 18:56:00,
2013-10-10 14:57:00,62.1,56.9,30.27,ESE,102,1.0,8.0,83,0.00,,,0.00,WeatherCatV1.21B27,2013-10-10 18:57:00,
2013-10-10 14:58:00,62.0,56.8,30.27,SE,124,1.0,8.0,83,0.00,,,0.00,WeatherCatV1.21B27,2013-10-10 18:58:00,
2013-10-10 14:59:00,62.0,57.1,30.27,ESE,111,6.0,6.0,84,0.00,,,0.00,WeatherCatV1.21B27,2013-10-10 18:59:00,
2013-10-10 15:02:00,61.9,56.7,30.27,SE,137,5.0,12.0,83,0.00,,,0.00,WeatherCatV1.21B27,2013-10-10 19:02:00,
2013-10-10 15:03:00,61.8,56.6,30.26,SE,132,8.0,12.0,83,0.00,,,0.00,WeatherCatV1.21B27,2013-10-10 19:03:00,
2013-10-10 15:04:00,61.7,56.5,30.26,SE,145,2.0,12.0,83,0.00,,,0.00,WeatherCatV1.21B27,2013-10-10 19:04:00,
2013-10-10 15:05:00,61.7,56.8,30.26,ESE,109,5.0,7.0,84,0.00,,,0.00,WeatherCatV1.21B27,2013-10-10 19:05:00,
2013-10-10 15:07:00,61.6,56.4,30.26,ESE,115,7.0,12.0,83,0.00,,,0.00,WeatherCatV1.21B27,2013-10-10 19:07:00,
2013-10-10 15:08:00,61.5,56.3,30.26,SE,130,11.0,11.0,83,0.00,,,0.00,WeatherCatV1.21B27,2013-10-10 19:08:00,
2013-10-10 15:10:00,61.4,56.2,30.26,SE,136,4.0,11.0,83,0.00,,,0.00,WeatherCatV1.21B27,2013-10-10 19:10:00,
2013-10-10 15:12:00,61.3,56.4,30.26,East,80,4.0,10.0,84,0.00,,,0.00,WeatherCatV1.21B27,2013-10-10 19:12:00,
2013-10-10 15:13:00,61.3,56.4,30.26,SSE,153,2.0,11.0,84,0.00,,,0.00,WeatherCatV1.21B27,2013-10-10 19:13:00,
2013-10-10 15:15:00,61.4,56.5,30.25,East,82,3.0,8.0,84,0.00,,,0.00,WeatherCatV1.21B27,2013-10-10 19:15:00,
2013-10-10 15:17:00,61.4,56.5,30.25,ENE,71,4.0,12.0,84,0.00,,,0.00,WeatherCatV1.21B27,2013-10-10 19:17:00,
2013-10-10 15:18:00,61.4,56.5,30.25,SE,126,5.0,12.0,84,0.00,,,0.00,WeatherCatV1.21B27,2013-10-10 19:18:00,
2013-10-10 15:20:00,61.3,56.4,30.25,NE,53,3.0,16.0,84,0.00,,,0.00,WeatherCatV1.21B27,2013-10-10 19:20:00,
2013-10-10 15:23:00,61.3,56.8,30.25,SSE,147,6.0,6.0,85,0.00,,,0.00,WeatherCatV1.21B27,2013-10-10 19:23:00,
2013-10-10 15:25:00,61.2,56.3,30.25,ENE,77,7.0,13.0,84,0.00,,,0.00,WeatherCatV1.21B27,2013-10-10 19:25:00,
2013-10-10 15:28:00,61.0,56.5,30.25,SSE,167,1.0,11.0,85,0.00,,,0.00,WeatherCatV1.21B27,2013-10-10 19:28:00,
2013-10-10 15:29:00,61.0,56.5,30.25,East,85,3.0,11.0,85,0.00,,,0.00,WeatherCatV1.21B27,2013-10-10 19:29:00,
2013-10-10 15:31:00,61.0,56.8,30.25,East,84,8.0,11.0,86,0.00,,,0.00,WeatherCatV1.21B27,2013-10-10 19:31:00,
2013-10-10 15:33:00,61.0,56.8,30.25,SSE,157,4.0,6.0,86,0.00,,,0.00,WeatherCatV1.21B27,2013-10-10 19:33:00,
2013-10-10 15:34:00,61.0,56.8,30.25,SE,130,5.0,6.0,86,0.00,,,0.00,WeatherCatV1.21B27,2013-10-10 19:34:00,
2013-10-10 15:36:00,60.9,56.7,30.25,SSE,150,2.0,7.0,86,0.00,,,0.00,WeatherCatV1.21B27,2013-10-10 19:36:00,
2013-10-10 15:38:00,60.9,56.4,30.25,SSE,158,5.0,12.0,85,0.00,,,0.00,WeatherCatV1.21B27,2013-10-10 19:38:00,
2013-10-10 15:39:00,60.9,56.4,30.25,SSE,158,6.0,12.0,85,0.00,,,0.00,WeatherCatV1.21B27,2013-10-10 19:39:00,
2013-10-10 15:41:00,60.8,56.6,30.25,SE,140,4.0,9.0,86,0.00,,,0.00,WeatherCatV1.21B27,2013-10-10 19:41:00,
2013-10-10 15:43:00,60.8,56.6,30.25,SSE,152,6.0,13.0,86,0.00,,,0.00,WeatherCatV1.21B27,2013-10-10 19:43:00,
2013-10-10 15:44:00,60.8,56.6,30.25,SE,136,4.0,13.0,86,0.00,,,0.00,WeatherCatV1.21B27,2013-10-10 19:44:00,
2013-10-10 15:46:00,60.9,56.7,30.25,ESE,107,1.0,2.0,86,0.00,,,0.00,WeatherCatV1.21B27,2013-10-10 19:46:00,
2013-10-10 15:49:00,60.9,56.7,30.25,East,92,2.0,5.0,86,0.00,,,0.00,WeatherCatV1.21B27,2013-10-10 19:49:00,
2013-10-10 15:50:00,60.9,56.7,30.25,ESE,112,5.0,7.0,86,0.00,,,0.00,WeatherCatV1.21B27,2013-10-10 19:50:00,
2013-10-10 15:52:00,60.9,56.7,30.25,ENE,70,3.0,11.0,86,0.00,,,0.00,WeatherCatV1.21B27,2013-10-10 19:52:00,
2013-10-10 15:54:00,60.8,56.6,30.25,South,180,4.0,8.0,86,0.00,,,0.00,WeatherCatV1.21B27,2013-10-10 19:54:00,
2013-10-10 15:55:00,60.8,56.6,30.25,SE,142,1.0,8.0,86,0.00,,,0.00,WeatherCatV1.21B27,2013-10-10 19:55:00,
2013-10-10 15:57:00,60.7,56.5,30.25,East,80,3.0,6.0,86,0.00,,,0.00,WeatherCatV1.21B27,2013-10-10 19:57:00,
2013-10-10 15:59:00,60.7,56.5,30.25,ESE,113,0.0,5.0,86,0.00,,,0.00,WeatherCatV1.21B27,2013-10-10 19:59:00,
2013-10-10 16:00:00,60.8,56.6,30.25,ESE,107,5.0,8.0,86,0.00,,,0.00,WeatherCatV1.21B27,2013-10-10 20:00:00,
2013-10-10 16:02:00,60.8,56.6,30.25,ESE,116,7.0,8.0,86,0.00,,,0.00,WeatherCatV1.21B27,2013-10-10 20:02:00,
2013-10-10 16:03:00,60.7,56.5,30.25,East,82,3.0,8.0,86,0.00,,,0.00,WeatherCatV1.21B27,2013-10-10 20:03:00,
2013-10-10 16:04:00,60.8,56.6,30.25,ESE,107,1.0,4.0,86,0.00,,,0.00,WeatherCatV1.21B27,2013-10-10 20:04:00,
2013-10-10 16:05:00,60.7,56.5,30.25,ESE,107,2.0,7.0,86,0.00,,,0.00,WeatherCatV1.21B27,2013-10-10 20:05:00,
2013-10-10 16:07:00,60.8,56.6,30.25,ENE,76,0.0,4.0,86,0.00,,,0.00,WeatherCatV1.21B27,2013-10-10 20:07:00,
2013-10-10 16:08:00,60.8,56.6,30.25,ESE,117,6.0,9.0,86,0.00,,,0.00,WeatherCatV1.21B27,2013-10-10 20:08:00,
2013-10-10 16:09:00,60.8,56.6,30.25,ENE,70,5.0,9.0,86,0.00,,,0.00,WeatherCatV1.21B27,2013-10-10 20:09:00,
2013-10-10 16:10:00,60.9,56.7,30.25,ESE,108,5.0,5.0,86,0.00,,,0.00,WeatherCatV1.21B27,2013-10-10 20:10:00,
2013-10-10 16:11:00,60.9,56.7,30.25,ESE,103,2.0,5.0,86,0.00,,,0.00,WeatherCatV1.21B27,2013-10-10 20:11:00,
2013-10-10 16:12:00,60.9,56.7,30.25,ESE,105,6.0,6.0,86,0.00,,,0.00,WeatherCatV1.21B27,2013-10-10 20:12:00,
2013-10-10 16:13:00,60.9,56.7,30.25,East,94,0.0,7.0,86,0.00,,,0.00,WeatherCatV1.21B27,2013-10-10 20:13:00,
2013-10-10 16:14:00,60.9,56.7,30.25,SE,140,5.0,7.0,86,0.00,,,0.00,WeatherCatV1.21B27,2013-10-10 20:14:00,
2013-10-10 16:16:00,60.9,56.7,30.25,ESE,102,0.0,2.0,86,0.00,,,0.00,WeatherCatV1.21B27,2013-10-10 20:16:00,
2013-10-10 16:17:00,60.9,56.7,30.25,ENE,67,4.0,6.0,86,0.00,,,0.00,WeatherCatV1.21B27,2013-10-10 20:17:00,
2013-10-10 16:18:00,60.9,56.7,30.25,ENE,71,4.0,7.0,86,0.00,,,0.00,WeatherCatV1.21B27,2013-10-10 20:18:00,
2013-10-10 16:19:00,61.0,56.8,30.25,NE,55,1.0,13.0,86,0.00,,,0.00,WeatherCatV1.21B27,2013-10-10 20:19:00,
2013-10-10 16:20:00,60.9,56.7,30.25,ENE,66,2.0,13.0,86,0.00,,,0.00,WeatherCatV1.21B27,2013-10-10 20:20:00,
2013-10-10 16:21:00,60.9,56.7,30.25,SW,229,1.0,7.0,86,0.00,,,0.00,WeatherCatV1.21B27,2013-10-10 20:21:00,
2013-10-10 16:22:00,60.9,56.7,30.25,East,87,4.0,9.0,86,0.00,,,0.00,WeatherCatV1.21B27,2013-10-10 20:22:00,
2013-10-10 16:23:00,60.9,56.7,30.25,East,96,0.0,9.0,86,0.00,,,0.00,WeatherCatV1.21B27,2013-10-10 20:23:00,
2013-10-10 16:24:00,60.9,56.7,30.25,SSE,147,1.0,6.0,86,0.00,,,0.00,WeatherCatV1.21B27,2013-10-10 20:24:00,
2013-10-10 16:25:00,60.9,56.7,30.25,SE,140,11.0,11.0,86,0.00,,,0.00,WeatherCatV1.21B27,2013-10-10 20:25:00,
2013-10-10 16:26:00,60.8,56.6,30.25,SE,132,1.0,11.0,86,0.00,,,0.00,WeatherCatV1.21B27,2013-10-10 20:26:00,
2013-10-10 16:27:00,60.8,56.6,30.25,ESE,111,4.0,6.0,86,0.00,,,0.00,WeatherCatV1.21B27,2013-10-10 20:27:00,
2013-10-10 16:29:00,60.7,56.8,30.25,East,99,5.0,7.0,87,0.00,,,0.00,WeatherCatV1.21B27,2013-10-10 20:29:00,
2013-10-10 16:30:00,60.7,56.8,30.25,SSE,161,2.0,7.0,87,0.00,,,0.00,WeatherCatV1.21B27,2013-10-10 20:30:00,
2013-10-10 16:31:00,60.7,56.8,30.25,ESE,104,6.0,7.0,87,0.00,,,0.00,WeatherCatV1.21B27,2013-10-10 20:31:00,
2013-10-10 16:34:00,60.6,56.7,30.24,ESE,122,1.0,7.0,87,0.00,,,0.00,WeatherCatV1.21B27,2013-10-10 20:34:00,
2013-10-10 16:35:00,60.6,56.7,30.24,ESE,112,7.0,11.0,87,0.00,,,0.00,WeatherCatV1.21B27,2013-10-10 20:35:00,
2013-10-10 16:36:00,60.5,56.6,30.24,NE,42,0.0,11.0,87,0.00,,,0.00,WeatherCatV1.21B27,2013-10-10 20:36:00,
2013-10-10 16:37:00,60.5,56.6,30.24,NNE,25,6.0,9.0,87,0.00,,,0.00,WeatherCatV1.21B27,2013-10-10 20:37:00,
2013-10-10 16:39:00,60.4,56.5,30.24,SE,139,1.0,9.0,87,0.00,,,0.00,WeatherCatV1.21B27,2013-10-10 20:39:00,
2013-10-10 16:40:00,60.3,56.4,30.24,East,96,6.0,7.0,87,0.00,,,0.00,WeatherCatV1.21B27,2013-10-10 20:40:00,
2013-10-10 16:41:00,60.3,56.4,30.24,ESE,121,8.0,8.0,87,0.00,,,0.00,WeatherCatV1.21B27,2013-10-10 20:41:00,
2013-10-10 16:42:00,60.3,56.4,30.24,ESE,116,5.0,8.0,87,0.00,,,0.00,WeatherCatV1.21B27,2013-10-10 20:42:00,
2013-10-10 16:45:00,60.3,56.4,30.24,SSE,150,4.0,13.0,87,0.00,,,0.00,WeatherCatV1.21B27,2013-10-10 20:45:00,
2013-10-10 16:46:00,60.2,56.3,30.24,SE,134,4.0,13.0,87,0.00,,,0.00,WeatherCatV1.21B27,2013-10-10 20:46:00,
2013-10-10 16:47:00,60.2,56.3,30.24,ESE,119,4.0,5.0,87,0.00,,,0.00,WeatherCatV1.21B27,2013-10-10 20:47:00,
2013-10-10 16:50:00,60.2,56.6,30.24,SSE,154,2.0,8.0,88,0.00,,,0.00,WeatherCatV1.21B27,2013-10-10 20:50:00,
2013-10-10 16:51:00,60.2,56.6,30.24,SE,126,4.0,7.0,88,0.00,,,0.00,WeatherCatV1.21B27,2013-10-10 20:51:00,
2013-10-10 16:52:00,60.1,56.5,30.25,ESE,103,4.0,8.0,88,0.00,,,0.00,WeatherCatV1.21B27,2013-10-10 20:52:00,
2013-10-10 16:55:00,60.1,56.5,30.25,East,90,5.0,5.0,88,0.00,,,0.00,WeatherCatV1.21B27,2013-10-10 20:55:00,
2013-10-10 16:56:00,60.1,56.5,30.25,ESE,110,8.0,8.0,88,0.00,,,0.00,WeatherCatV1.21B27,2013-10-10 20:56:00,
2013-10-10 16:57:00,60.1,56.5,30.25,East,97,2.0,8.0,88,0.00,,,0.00,WeatherCatV1.21B27,2013-10-10 20:57:00,
2013-10-10 16:58:00,60.1,56.5,30.25,East,95,5.0,8.0,88,0.00,,,0.00,WeatherCatV1.21B27,2013-10-10 20:58:00,
2013-10-10 17:00:00,60.0,56.4,30.25,NW,323,0.0,2.0,88,0.00,,,0.00,WeatherCatV1.21B27,2013-10-10 21:00:00,
2013-10-10 17:01:00,60.0,56.4,30.25,NW,323,0.0,2.0,88,0.00,,,0.00,WeatherCatV1.21B27,2013-10-10 21:01:00,
2013-10-10 17:02:00,60.0,56.4,30.25,ESE,103,1.0,2.0,88,0.00,,,0.00,WeatherCatV1.21B27,2013-10-10 21:02:00,
2013-10-10 17:03:00,60.0,56.4,30.24,SE,131,5.0,5.0,88,0.00,,,0.00,WeatherCatV1.21B27,2013-10-10 21:03:00,
2013-10-10 17:05:00,60.0,56.4,30.24,SSE,162,4.0,11.0,88,0.00,,,0.00,WeatherCatV1.21B27,2013-10-10 21:05:00,
2013-10-10 17:06:00,60.0,56.4,30.24,ESE,107,2.0,6.0,88,0.00,,,0.00,WeatherCatV1.21B27,2013-10-10 21:06:00,
2013-10-10 17:07:00,60.0,56.4,30.24,East,96,5.0,7.0,88,0.00,,,0.00,WeatherCatV1.21B27,2013-10-10 21:07:00,
2013-10-10 17:08:00,59.9,56.3,30.24,ENE,57,2.0,7.0,88,0.00,,,0.00,WeatherCatV1.21B27,2013-10-10 21:08:00,
2013-10-10 17:10:00,59.9,56.3,30.24,ESE,113,1.0,7.0,88,0.00,,,0.00,WeatherCatV1.21B27,2013-10-10 21:10:00,
2013-10-10 17:11:00,59.9,56.3,30.24,ESE,116,1.0,7.0,88,0.00,,,0.00,WeatherCatV1.21B27,2013-10-10 21:11:00,
2013-10-10 17:12:00,59.9,56.3,30.24,ESE,115,1.0,6.0,88,0.00,,,0.00,WeatherCatV1.21B27,2013-10-10 21:12:00,
2013-10-10 17:13:00,59.9,56.3,30.24,ESE,114,0.0,2.0,88,0.00,,,0.00,WeatherCatV1.21B27,2013-10-10 21:13:00,
2013-10-10 17:15:00,59.9,56.7,30.24,East,97,5.0,8.0,89,0.00,,,0.00,WeatherCatV1.21B27,2013-10-10 21:15:00,
2013-10-10 17:16:00,59.9,56.7,30.24,SE,124,4.0,8.0,89,0.00,,,0.00,WeatherCatV1.21B27,2013-10-10 21:16:00,
2013-10-10 17:17:00,59.9,56.3,30.24,ENE,78,7.0,8.0,88,0.00,,,0.00,WeatherCatV1.21B27,2013-10-10 21:17:00,
2013-10-10 17:18:00,59.9,56.3,30.24,NE,51,2.0,12.0,88,0.00,,,0.00,WeatherCatV1.21B27,2013-10-10 21:18:00,
2013-10-10 17:20:00,59.9,56.3,30.24,ESE,117,7.0,8.0,88,0.00,,,0.00,WeatherCatV1.21B27,2013-10-10 21:20:00,
2013-10-10 17:22:00,59.9,56.3,30.24,ENE,66,4.0,9.0,88,0.00,,,0.00,WeatherCatV1.21B27,2013-10-10 21:22:00,
2013-10-10 17:23:00,59.8,56.2,30.24,SE,141,1.0,9.0,88,0.00,,,0.00,WeatherCatV1.21B27,2013-10-10 21:23:00,
2013-10-10 17:24:00,59.8,56.2,30.24,ENE,76,3.0,9.0,88,0.00,,,0.00,WeatherCatV1.21B27,2013-10-10 21:24:00,
2013-10-10 17:26:00,59.8,56.5,30.24,SE,124,2.0,8.0,89,0.00,,,0.00,WeatherCatV1.21B27,2013-10-10 21:26:00,
2013-10-10 17:27:00,59.8,56.2,30.24,ESE,112,7.0,8.0,88,0.00,,,0.00,WeatherCatV1.21B27,2013-10-10 21:27:00,
2013-10-10 17:28:00,59.8,56.5,30.24,ENE,73,5.0,7.0,89,0.00,,,0.00,WeatherCatV1.21B27,2013-10-10 21:28:00,
2013-10-10 17:29:00,59.8,56.5,30.24,East,101,4.0,7.0,89,0.00,,,0.00,WeatherCatV1.21B27,2013-10-10 21:29:00,
2013-10-10 17:32:00,59.8,56.5,30.24,East,83,1.0,8.0,89,0.00,,,0.00,WeatherCatV1.21B27,2013-10-10 21:32:00,
2013-10-10 17:33:00,59.8,56.2,30.24,ESE,119,2.0,5.0,88,0.00,,,0.00,WeatherCatV1.21B27,2013-10-10 21:33:00,
2013-10-10 17:34:00,59.8,56.5,30.24,ENE,74,3.0,9.0,89,0.00,,,0.00,WeatherCatV1.21B27,2013-10-10 21:34:00,
2013-10-10 17:37:00,59.7,56.5,30.24,ENE,71,6.0,7.0,89,0.00,,,0.00,WeatherCatV1.21B27,2013-10-10 21:37:00,
2013-10-10 17:38:00,59.7,56.5,30.24,East,88,2.0,6.0,89,0.00,,,0.00,WeatherCatV1.21B27,2013-10-10 21:38:00,
2013-10-10 17:39:00,59.7,56.5,30.24,SE,133,5.0,12.0,89,0.00,,,0.00,WeatherCatV1.21B27,2013-10-10 21:39:00,
2013-10-10 17:42:00,59.6,56.3,30.24,SE,132,5.0,7.0,89,0.00,,,0.00,WeatherCatV1.21B27,2013-10-10 21:42:00,
2013-10-10 17:43:00,59.6,56.3,30.24,ESE,105,7.0,7.0,89,0.00,,,0.00,WeatherCatV1.21B27,2013-10-10 21:43:00,
2013-10-10 17:44:00,59.6,56.3,30.24,ENE,59,2.0,8.0,89,0.00,,,0.00,WeatherCatV1.21B27,2013-10-10 21:44:00,
2013-10-10 17:47:00,59.6,56.3,30.24,ESE,109,0.0,6.0,89,0.00,,,0.00,WeatherCatV1.21B27,2013-10-10 21:47:00,
2013-10-10 17:48:00,59.5,56.2,30.24,SE,125,1.0,9.0,89,0.00,,,0.00,WeatherCatV1.21B27,2013-10-10 21:48:00,
2013-10-10 17:49:00,59.5,56.2,30.24,NNE,28,3.0,9.0,89,0.00,,,0.00,WeatherCatV1.21B27,2013-10-10 21:49:00,
2013-10-10 17:52:00,59.5,56.2,30.23,SE,125,1.0,11.0,89,0.00,,,0.00,WeatherCatV1.21B27,2013-10-10 21:52:00,
2013-10-10 17:53:00,59.5,56.2,30.23,ESE,105,5.0,11.0,89,0.00,,,0.00,WeatherCatV1.21B27,2013-10-10 21:53:00,
2013-10-10 17:54:00,59.5,56.2,30.23,SSE,165,6.0,11.0,89,0.00,,,0.00,WeatherCatV1.21B27,2013-10-10 21:54:00,
2013-10-10 17:57:00,59.4,56.2,30.23,ENE,73,2.0,5.0,89,0.00,,,0.00,WeatherCatV1.21B27,2013-10-10 21:57:00,
2013-10-10 17:58:00,59.4,56.2,30.23,ESE,108,0.0,5.0,89,0.00,,,0.00,WeatherCatV1.21B27,2013-10-10 21:58:00,
2013-10-10 17:59:00,59.4,56.2,30.23,SE,126,7.0,7.0,89,0.00,,,0.00,WeatherCatV1.21B27,2013-10-10 21:59:00,
2013-10-10 18:02:00,59.4,56.2,30.23,SE,134,4.0,5.0,89,0.00,,,0.00,WeatherCatV1.21B27,2013-10-10 22:02:00,
2013-10-10 18:03:00,59.3,56.0,30.23,ESE,105,2.0,5.0,89,0.00,,,0.00,WeatherCatV1.21B27,2013-10-10 22:03:00,
2013-10-10 18:04:00,59.4,56.2,30.23,East,88,2.0,7.0,89,0.00,,,0.00,WeatherCatV1.21B27,2013-10-10 22:04:00,
2013-10-10 18:05:00,59.3,56.0,30.23,SE,124,8.0,8.0,89,0.00,,,0.00,WeatherCatV1.21B27,2013-10-10 22:05:00,
2013-10-10 18:07:00,59.3,56.4,30.23,ESE,109,4.0,6.0,90,0.00,,,0.00,WeatherCatV1.21B27,2013-10-10 22:07:00,
2013-10-10 18:08:00,59.3,56.4,30.23,East,93,9.0,9.0,90,0.00,,,0.00,WeatherCatV1.21B27,2013-10-10 22:08:00,
2013-10-10 18:09:00,59.3,56.0,30.23,ESE,107,2.0,11.0,89,0.00,,,0.00,WeatherCatV1.21B27,2013-10-10 22:09:00,
2013-10-10 18:10:00,59.3,56.4,30.23,East,96,1.0,11.0,90,0.00,,,0.00,WeatherCatV1.21B27,2013-10-10 22:10:00,
2013-10-10 18:12:00,59.2,56.3,30.23,East,87,3.0,9.0,90,0.00,,,0.00,WeatherCatV1.21B27,2013-10-10 22:12:00,
2013-10-10 18:13:00,59.2,56.3,30.23,East,95,4.0,5.0,90,0.00,,,0.00,WeatherCatV1.21B27,2013-10-10 22:13:00,
2013-10-10 18:14:00,59.2,56.3,30.23,ESE,117,2.0,4.0,90,0.00,,,0.00,WeatherCatV1.21B27,2013-10-10 22:14:00,
2013-10-10 18:15:00,59.2,56.3,30.23,East,94,4.0,4.0,90,0.00,,,0.00,WeatherCatV1.21B27,2013-10-10 22:15:00,
2013-10-10 18:17:00,59.2,56.3,30.23,East,82,1.0,6.0,90,0.00,,,0.00,WeatherCatV1.21B27,2013-10-10 22:17:00,
2013-10-10 18:18:00,59.2,56.3,30.23,SSE,149,0.0,6.0,90,0.00,,,0.00,WeatherCatV1.21B27,2013-10-10 22:18:00,
2013-10-10 18:19:00,59.2,56.3,30.23,ESE,122,2.0,5.0,90,0.00,,,0.00,WeatherCatV1.21B27,2013-10-10 22:19:00,
2013-10-10 18:20:00,59.1,56.2,30.23,ESE,123,5.0,5.0,90,0.00,,,0.00,WeatherCatV1.21B27,2013-10-10 22:20:00,
2013-10-10 18:21:00,59.1,56.2,30.23,East,87,3.0,6.0,90,0.00,,,0.00,WeatherCatV1.21B27,2013-10-10 22:21:00,
2013-10-10 18:22:00,59.1,56.2,30.23,ENE,73,7.0,7.0,90,0.00,,,0.00,WeatherCatV1.21B27,2013-10-10 22:22:00,
2013-10-10 18:23:00,59.1,56.2,30.23,East,95,6.0,7.0,90,0.00,,,0.00,WeatherCatV1.21B27,2013-10-10 22:23:00,
2013-10-10 18:24:00,59.1,56.2,30.23,East,99,4.0,7.0,90,0.00,,,0.00,WeatherCatV1.21B27,2013-10-10 22:24:00,
2013-10-10 18:25:00,59.1,56.2,30.23,ESE,119,0.0,4.0,90,0.00,,,0.00,WeatherCatV1.21B27,2013-10-10 22:25:00,
2013-10-10 18:26:00,59.1,56.2,30.23,East,81,2.0,3.0,90,0.00,,,0.00,WeatherCatV1.21B27,2013-10-10 22:26:00,
2013-10-10 18:28:00,59.1,56.2,30.23,ESE,122,9.0,9.0,90,0.00,,,0.00,WeatherCatV1.21B27,2013-10-10 22:28:00,
2013-10-10 18:29:00,59.1,56.5,30.23,SE,142,2.0,11.0,91,0.00,,,0.00,WeatherCatV1.21B27,2013-10-10 22:29:00,
2013-10-10 18:30:00,59.1,56.2,30.23,NE,52,0.0,8.0,90,0.00,,,0.00,WeatherCatV1.21B27,2013-10-10 22:30:00,
2013-10-10 18:31:00,59.1,56.2,30.23,ENE,63,1.0,8.0,90,0.00,,,0.00,WeatherCatV1.21B27,2013-10-10 22:31:00,
2013-10-10 18:33:00,59.1,56.2,30.23,ENE,77,6.0,6.0,90,0.00,,,0.00,WeatherCatV1.21B27,2013-10-10 22:33:00,
2013-10-10 18:35:00,59.0,56.1,30.23,ESE,116,5.0,9.0,90,0.00,,,0.00,WeatherCatV1.21B27,2013-10-10 22:35:00,
2013-10-10 18:36:00,59.0,56.4,30.23,East,79,1.0,5.0,91,0.00,,,0.00,WeatherCatV1.21B27,2013-10-10 22:36:00,
2013-10-10 18:38:00,59.0,56.4,30.23,East,98,2.0,8.0,91,0.00,,,0.00,WeatherCatV1.21B27,2013-10-10 22:38:00,
2013-10-10 18:40:00,59.0,56.4,30.23,ENE,69,7.0,7.0,91,0.00,,,0.00,WeatherCatV1.21B27,2013-10-10 22:40:00,
2013-10-10 18:41:00,59.0,56.4,30.23,SSE,163,4.0,8.0,91,0.00,,,0.00,WeatherCatV1.21B27,2013-10-10 22:41:00,
2013-10-10 18:42:00,59.0,56.4,30.23,SE,134,6.0,9.0,91,0.00,,,0.00,WeatherCatV1.21B27,2013-10-10 22:42:00,
2013-10-10 18:43:00,59.0,56.4,30.23,ESE,123,6.0,9.0,91,0.00,,,0.00,WeatherCatV1.21B27,2013-10-10 22:43:00,
2013-10-10 18:44:00,59.0,56.4,30.23,ESE,113,4.0,7.0,91,0.00,,,0.00,WeatherCatV1.21B27,2013-10-10 22:44:00,
2013-10-10 18:45:00,59.0,56.4,30.23,ENE,64,2.0,4.0,91,0.00,,,0.00,WeatherCatV1.21B27,2013-10-10 22:45:00,
2013-10-10 18:46:00,59.0,56.4,30.24,East,92,7.0,7.0,91,0.00,,,0.00,WeatherCatV1.21B27,2013-10-10 22:46:00,
2013-10-10 18:47:00,59.0,56.4,30.24,NE,38,2.0,7.0,91,0.00,,,0.00,WeatherCatV1.21B27,2013-10-10 22:47:00,
2013-10-10 18:48:00,59.0,56.4,30.23,SE,140,1.0,5.0,91,0.00,,,0.00,WeatherCatV1.21B27,2013-10-10 22:48:00,
2013-10-10 18:49:00,59.0,56.4,30.23,ENE,72,4.0,5.0,91,0.00,,,0.00,WeatherCatV1.21B27,2013-10-10 22:49:00,
2013-10-10 18:50:00,59.0,56.4,30.23,East,80,4.0,11.0,91,0.00,,,0.00,WeatherCatV1.21B27,2013-10-10 22:50:00,
2013-10-10 18:51:00,59.0,56.4,30.23,ESE,113,7.0,11.0,91,0.00,,,0.00,WeatherCatV1.21B27,2013-10-10 22:51:00,
2013-10-10 18:52:00,59.0,56.4,30.23,NE,48,4.0,10.0,91,0.00,,,0.00,WeatherCatV1.21B27,2013-10-10 22:52:00,
2013-10-10 18:53:00,59.0,56.4,30.23,East,86,5.0,7.0,91,0.00,,,0.00,WeatherCatV1.21B27,2013-10-10 22:53:00,
2013-10-10 18:54:00,59.0,56.4,30.23,SE,136,5.0,9.0,91,0.00,,,0.00,WeatherCatV1.21B27,2013-10-10 22:54:00,
2013-10-10 18:55:00,59.0,56.4,30.23,SSE,147,4.0,11.0,91,0.00,,,0.00,WeatherCatV1.21B27,2013-10-10 22:55:00,
2013-10-10 18:56:00,59.0,56.4,30.23,ESE,113,4.0,11.0,91,0.00,,,0.00,WeatherCatV1.21B27,2013-10-10 22:56:00,
2013-10-10 18:57:00,58.9,56.3,30.23,ESE,118,2.0,7.0,91,0.00,,,0.00,WeatherCatV1.21B27,2013-10-10 22:57:00,
2013-10-10 18:58:00,59.0,56.4,30.23,East,98,5.0,6.0,91,0.00,,,0.00,WeatherCatV1.21B27,2013-10-10 22:58:00,
2013-10-10 18:59:00,59.0,56.4,30.23,East,84,4.0,6.0,91,0.00,,,0.00,WeatherCatV1.21B27,2013-10-10 22:59:00,
2013-10-10 19:01:00,59.0,56.4,30.23,SE,126,4.0,11.0,91,0.00,,,0.00,WeatherCatV1.21B27,2013-10-10 23:01:00,
2013-10-10 19:02:00,59.0,56.4,30.23,ESE,105,6.0,7.0,91,0.00,,,0.00,WeatherCatV1.21B27,2013-10-10 23:02:00,
2013-10-10 19:03:00,59.0,56.4,30.23,SE,136,5.0,7.0,91,0.00,,,0.00,WeatherCatV1.21B27,2013-10-10 23:03:00,
2013-10-10 19:04:00,59.0,56.4,30.23,ESE,105,7.0,8.0,91,0.00,,,0.00,WeatherCatV1.21B27,2013-10-10 23:04:00,
2013-10-10 19:06:00,59.0,56.4,30.23,East,86,5.0,8.0,91,0.00,,,0.00,WeatherCatV1.21B27,2013-10-10 23:06:00,
2013-10-10 19:07:00,59.0,56.4,30.23,NE,53,2.0,8.0,91,0.00,,,0.00,WeatherCatV1.21B27,2013-10-10 23:07:00,
2013-10-10 19:08:00,59.0,56.4,30.23,East,100,0.0,6.0,91,0.00,,,0.00,WeatherCatV1.21B27,2013-10-10 23:08:00,
2013-10-10 19:09:00,59.0,56.4,30.23,ESE,120,9.0,15.0,91,0.00,,,0.00,WeatherCatV1.21B27,2013-10-10 23:09:00,
2013-10-10 19:12:00,59.0,56.4,30.23,SE,144,4.0,10.0,91,0.00,,,0.00,WeatherCatV1.21B27,2013-10-10 23:12:00,
2013-10-10 19:13:00,58.9,56.3,30.23,ESE,122,0.0,6.0,91,0.00,,,0.00,WeatherCatV1.21B27,2013-10-10 23:13:00,
2013-10-10 19:14:00,58.9,56.3,30.23,ESE,102,6.0,6.0,91,0.00,,,0.00,WeatherCatV1.21B27,2013-10-10 23:14:00,
2013-10-10 19:17:00,58.9,56.3,30.23,ESE,123,4.0,8.0,91,0.00,,,0.00,WeatherCatV1.21B27,2013-10-10 23:17:00,
2013-10-10 19:18:00,58.9,56.3,30.23,East,91,2.0,4.0,91,0.00,,,0.00,WeatherCatV1.21B27,2013-10-10 23:18:00,
2013-10-10 19:19:00,58.9,56.3,30.23,SE,133,4.0,7.0,91,0.00,,,0.00,WeatherCatV1.21B27,2013-10-10 23:19:00,
2013-10-10 19:22:00,58.9,56.3,30.23,SE,136,4.0,9.0,91,0.00,,,0.00,WeatherCatV1.21B27,2013-10-10 23:22:00,
2013-10-10 19:23:00,58.9,56.3,30.23,ESE,123,4.0,6.0,91,0.00,,,0.00,WeatherCatV1.21B27,2013-10-10 23:23:00,
2013-10-10 19:24:00,58.9,56.6,30.24,ESE,105,2.0,6.0,92,0.00,,,0.00,WeatherCatV1.21B27,2013-10-10 23:24:00,
2013-10-10 19:25:00,58.9,56.6,30.23,East,101,2.0,6.0,92,0.00,,,0.00,WeatherCatV1.21B27,2013-10-10 23:25:00,
2013-10-10 19:27:00,58.9,56.6,30.23,East,88,3.0,6.0,92,0.00,,,0.00,WeatherCatV1.21B27,2013-10-10 23:27:00,
2013-10-10 19:29:00,58.9,56.6,30.23,SE,140,4.0,6.0,92,0.00,,,0.00,WeatherCatV1.21B27,2013-10-10 23:29:00,
2013-10-10 19:30:00,58.9,56.6,30.23,ESE,121,1.0,5.0,92,0.00,,,0.00,WeatherCatV1.21B27,2013-10-10 23:30:00,
2013-10-10 19:32:00,58.9,56.6,30.23,South,184,0.0,6.0,92,0.00,,,0.00,WeatherCatV1.21B27,2013-10-10 23:32:00,
2013-10-10 19:33:00,58.9,56.6,30.23,South,182,0.0,4.0,92,0.00,,,0.00,WeatherCatV1.21B27,2013-10-10 23:33:00,
2013-10-10 19:34:00,58.9,56.6,30.23,ESE,107,5.0,8.0,92,0.00,,,0.00,WeatherCatV1.21B27,2013-10-10 23:34:00,
2013-10-10 19:35:00,58.9,56.6,30.23,SSE,149,4.0,8.0,92,0.00,,,0.00,WeatherCatV1.21B27,2013-10-10 23:35:00,
2013-10-10 19:37:00,58.9,56.6,30.23,East,87,5.0,14.0,92,0.00,,,0.00,WeatherCatV1.21B27,2013-10-10 23:37:00,
2013-10-10 19:38:00,58.9,56.6,30.23,ESE,111,4.0,9.0,92,0.00,,,0.00,WeatherCatV1.21B27,2013-10-10 23:38:00,
2013-10-10 19:39:00,58.9,56.6,30.22,ESE,112,7.0,9.0,92,0.00,,,0.00,WeatherCatV1.21B27,2013-10-10 23:39:00,
2013-10-10 19:40:00,58.9,56.6,30.22,SE,137,6.0,7.0,92,0.00,,,0.00,WeatherCatV1.21B27,2013-10-10 23:40:00,
2013-10-10 19:43:00,58.9,56.6,30.22,SE,127,2.0,9.0,92,0.00,,,0.00,WeatherCatV1.21B27,2013-10-10 23:43:00,
2013-10-10 19:44:00,58.9,56.6,30.22,ESE,113,0.0,9.0,92,0.00,,,0.00,WeatherCatV1.21B27,2013-10-10 23:44:00,
2013-10-10 19:45:00,58.9,56.6,30.23,ESE,121,0.0,11.0,92,0.00,,,0.00,WeatherCatV1.21B27,2013-10-10 23:45:00,
2013-10-10 19:49:00,58.9,56.6,30.22,SE,140,7.0,13.0,92,0.00,,,0.00,WeatherCatV1.21B27,2013-10-10 23:49:00,
2013-10-10 19:50:00,58.9,56.6,30.22,ENE,65,3.0,5.0,92,0.00,,,0.00,WeatherCatV1.21B27,2013-10-10 23:50:00,
2013-10-10 19:54:00,58.9,56.6,30.22,SE,125,1.0,9.0,92,0.00,,,0.00,WeatherCatV1.21B27,2013-10-10 23:54:00,
2013-10-10 19:56:00,58.9,56.6,30.22,SE,134,4.0,13.0,92,0.00,,,0.00,WeatherCatV1.21B27,2013-10-10 23:56:00,
2013-10-10 19:59:00,58.9,56.6,30.22,ENE,63,2.0,11.0,92,0.00,,,0.00,WeatherCatV1.21B27,2013-10-10 23:59:00,
2013-10-10 20:00:00,58.9,56.6,30.22,ENE,67,1.0,11.0,92,0.00,,,0.00,WeatherCatV1.21B27,2013-10-11 00:00:00,
2013-10-10 20:01:00,58.9,56.6,30.22,ESE,104,2.0,7.0,92,0.00,,,0.00,WeatherCatV1.21B27,2013-10-11 00:01:00,
2013-10-10 20:04:00,58.9,56.6,30.22,East,99,7.0,7.0,92,0.00,,,0.00,WeatherCatV1.21B27,2013-10-11 00:04:00,
2013-10-10 20:05:00,58.9,56.6,30.22,East,96,7.0,7.0,92,0.00,,,0.00,WeatherCatV1.21B27,2013-10-11 00:05:00,
2013-10-10 20:06:00,58.9,56.6,30.22,ENE,74,1.0,7.0,92,0.00,,,0.00,WeatherCatV1.21B27,2013-10-11 00:06:00,
2013-10-10 20:09:00,58.9,56.6,30.22,ESE,105,4.0,9.0,92,0.00,,,0.00,WeatherCatV1.21B27,2013-10-11 00:09:00,
2013-10-10 20:10:00,58.9,56.6,30.22,ENE,69,2.0,11.0,92,0.00,,,0.00,WeatherCatV1.21B27,2013-10-11 00:10:00,
2013-10-10 20:11:00,58.9,56.6,30.22,SE,136,4.0,11.0,92,0.00,,,0.00,WeatherCatV1.21B27,2013-10-11 00:11:00,
2013-10-10 20:14:00,58.9,56.6,30.22,ESE,103,4.0,9.0,92,0.00,,,0.00,WeatherCatV1.21B27,2013-10-11 00:14:00,
2013-10-10 20:15:00,58.9,56.6,30.22,ESE,111,6.0,9.0,92,0.00,,,0.00,WeatherCatV1.21B27,2013-10-11 00:15:00,
2013-10-10 20:16:00,58.9,56.6,30.22,East,91,6.0,7.0,92,0.00,,,0.00,WeatherCatV1.21B27,2013-10-11 00:16:00,
2013-10-10 20:19:00,58.9,56.6,30.22,East,86,3.0,9.0,92,0.00,,,0.00,WeatherCatV1.21B27,2013-10-11 00:19:00,
2013-10-10 20:20:00,58.9,56.6,30.22,East,101,2.0,9.0,92,0.00,,,0.00,WeatherCatV1.21B27,2013-10-11 00:20:00,
2013-10-10 20:21:00,58.9,56.6,30.22,ENE,76,4.0,6.0,92,0.00,,,0.00,WeatherCatV1.21B27,2013-10-11 00:21:00,
2013-10-10 20:24:00,58.9,56.6,30.22,ESE,122,2.0,6.0,92,0.00,,,0.00,WeatherCatV1.21B27,2013-10-11 00:24:00,
2013-10-10 20:25:00,58.9,56.6,30.22,ESE,121,1.0,6.0,92,0.00,,,0.00,WeatherCatV1.21B27,2013-10-11 00:25:00,
2013-10-10 20:26:00,58.9,56.6,30.22,SE,126,0.0,5.0,92,0.00,,,0.00,WeatherCatV1.21B27,2013-10-11 00:26:00,
2013-10-10 20:30:00,58.9,56.6,30.22,East,96,0.0,8.0,92,0.00,,,0.00,WeatherCatV1.21B27,2013-10-11 00:30:00,
2013-10-10 20:31:00,58.9,56.6,30.22,ENE,57,0.0,8.0,92,0.00,,,0.00,WeatherCatV1.21B27,2013-10-11 00:31:00,
2013-10-10 20:32:00,58.9,56.6,30.22,East,101,1.0,7.0,92,0.00,,,0.00,WeatherCatV1.21B27,2013-10-11 00:32:00,
2013-10-10 20:35:00,58.9,56.6,30.22,ENE,71,4.0,4.0,92,0.00,,,0.00,WeatherCatV1.21B27,2013-10-11 00:35:00,
2013-10-10 20:36:00,58.9,56.6,30.22,North,0,0.0,8.0,92,0.00,,,0.00,WeatherCatV1.21B27,2013-10-11 00:36:00,
2013-10-10 20:37:00,58.9,56.6,30.22,ESE,109,0.0,8.0,92,0.00,,,0.00,WeatherCatV1.21B27,2013-10-11 00:37:00,
2013-10-10 20:38:00,58.9,56.6,30.22,ENE,61,3.0,7.0,92,0.00,,,0.00,WeatherCatV1.21B27,2013-10-11 00:38:00,
2013-10-10 20:40:00,58.9,56.6,30.22,SE,128,0.0,7.0,92,0.00,,,0.00,WeatherCatV1.21B27,2013-10-11 00:40:00,
2013-10-10 20:41:00,58.9,56.6,30.22,SSE,148,2.0,7.0,92,0.00,,,0.00,WeatherCatV1.21B27,2013-10-11 00:41:00,
2013-10-10 20:42:00,58.9,56.6,30.22,ESE,113,6.0,7.0,92,0.00,,,0.00,WeatherCatV1.21B27,2013-10-11 00:42:00,
2013-10-10 20:43:00,58.9,56.6,30.21,East,98,4.0,7.0,92,0.00,,,0.00,WeatherCatV1.21B27,2013-10-11 00:43:00,
2013-10-10 20:45:00,58.9,56.6,30.21,SE,131,2.0,4.0,92,0.00,,,0.00,WeatherCatV1.21B27,2013-10-11 00:45:00,
2013-10-10 20:46:00,58.9,56.6,30.21,East,86,10.0,11.0,92,0.00,,,0.00,WeatherCatV1.21B27,2013-10-11 00:46:00,
2013-10-10 20:47:00,58.9,56.6,30.21,ESE,109,4.0,11.0,92,0.00,,,0.00,WeatherCatV1.21B27,2013-10-11 00:47:00,
2013-10-10 20:48:00,58.9,56.6,30.21,SE,146,2.0,11.0,92,0.00,,,0.00,WeatherCatV1.21B27,2013-10-11 00:48:00,
2013-10-10 20:50:00,58.9,56.6,30.21,East,86,1.0,9.0,92,0.00,,,0.00,WeatherCatV1.21B27,2013-10-11 00:50:00,
2013-10-10 20:51:00,58.8,56.5,30.21,ESE,117,6.0,9.0,92,0.00,,,0.00,WeatherCatV1.21B27,2013-10-11 00:51:00,
2013-10-10 20:52:00,58.8,56.5,30.21,East,86,3.0,8.0,92,0.00,,,0.00,WeatherCatV1.21B27,2013-10-11 00:52:00,
2013-10-10 20:53:00,58.8,56.5,30.22,ENE,66,2.0,5.0,92,0.00,,,0.00,WeatherCatV1.21B27,2013-10-11 00:53:00,
2013-10-10 20:55:00,58.8,56.8,30.22,East,96,6.0,11.0,93,0.00,,,0.00,WeatherCatV1.21B27,2013-10-11 00:55:00,
2013-10-10 20:56:00,58.9,56.9,30.21,SSE,161,7.0,8.0,93,0.00,,,0.00,WeatherCatV1.21B27,2013-10-11 00:56:00,
2013-10-10 20:57:00,58.9,56.9,30.21,SSE,152,1.0,9.0,93,0.00,,,0.00,WeatherCatV1.21B27,2013-10-11 00:57:00,
2013-10-10 20:58:00,58.8,56.8,30.21,East,97,5.0,9.0,93,0.00,,,0.00,WeatherCatV1.21B27,2013-10-11 00:58:00,
2013-10-10 21:00:00,58.8,56.8,30.21,SE,141,2.0,6.0,93,0.00,,,0.00,WeatherCatV1.21B27,2013-10-11 01:00:00,
2013-10-10 21:01:00,58.8,56.8,30.21,SE,141,0.0,6.0,93,0.00,,,0.00,WeatherCatV1.21B27,2013-10-11 01:01:00,
2013-10-10 21:02:00,58.8,56.8,30.21,SE,124,5.0,6.0,93,0.00,,,0.00,WeatherCatV1.21B27,2013-10-11 01:02:00,
2013-10-10 21:03:00,58.9,56.9,30.22,ENE,71,5.0,6.0,93,0.00,,,0.00,WeatherCatV1.21B27,2013-10-11 01:03:00,
2013-10-10 21:04:00,58.9,56.9,30.22,ENE,66,4.0,7.0,93,0.00,,,0.00,WeatherCatV1.21B27,2013-10-11 01:04:00,
2013-10-10 21:06:00,58.9,56.9,30.21,East,94,2.0,7.0,93,0.00,,,0.00,WeatherCatV1.21B27,2013-10-11 01:06:00,
2013-10-10 21:07:00,58.9,56.9,30.21,ENE,77,0.0,7.0,93,0.00,,,0.00,WeatherCatV1.21B27,2013-10-11 01:07:00,
2013-10-10 21:08:00,58.9,56.9,30.21,East,89,2.0,8.0,93,0.00,,,0.00,WeatherCatV1.21B27,2013-10-11 01:08:00,
2013-10-10 21:09:00,58.9,56.9,30.21,ENE,76,0.0,8.0,93,0.00,,,0.00,WeatherCatV1.21B27,2013-10-11 01:09:00,
2013-10-10 21:11:00,58.9,56.9,30.21,East,90,5.0,6.0,93,0.00,,,0.00,WeatherCatV1.21B27,2013-10-11 01:11:00,
2013-10-10 21:12:00,58.9,56.9,30.21,ESE,119,0.0,7.0,93,0.00,,,0.00,WeatherCatV1.21B27,2013-10-11 01:12:00,
2013-10-10 21:13:00,58.9,56.9,30.21,ENE,73,3.0,11.0,93,0.00,,,0.00,WeatherCatV1.21B27,2013-10-11 01:13:00,
2013-10-10 21:14:00,58.9,56.9,30.21,ENE,64,0.0,11.0,93,0.00,,,0.00,WeatherCatV1.21B27,2013-10-11 01:14:00,
2013-10-10 21:16:00,58.9,56.9,30.21,East,88,1.0,7.0,93,0.00,,,0.00,WeatherCatV1.21B27,2013-10-11 01:16:00,
2013-10-10 21:17:00,58.9,56.9,30.21,ESE,119,1.0,5.0,93,0.00,,,0.00,WeatherCatV1.21B27,2013-10-11 01:17:00,
2013-10-10 21:18:00,58.9,56.9,30.21,East,97,0.0,5.0,93,0.00,,,0.00,WeatherCatV1.21B27,2013-10-11 01:18:00,
2013-10-10 21:19:00,58.9,56.9,30.21,NE,46,2.0,3.0,93,0.00,,,0.00,WeatherCatV1.21B27,2013-10-11 01:19:00,
2013-10-10 21:21:00,58.9,56.9,30.21,East,98,6.0,6.0,93,0.00,,,0.00,WeatherCatV1.21B27,2013-10-11 01:21:00,
2013-10-10 21:22:00,58.9,56.9,30.21,ESE,105,4.0,8.0,93,0.00,,,0.00,WeatherCatV1.21B27,2013-10-11 01:22:00,
2013-10-10 21:23:00,58.9,56.9,30.21,SE,124,2.0,6.0,93,0.00,,,0.00,WeatherCatV1.21B27,2013-10-11 01:23:00,
2013-10-10 21:25:00,58.9,56.9,30.21,SE,139,1.0,4.0,93,0.00,,,0.00,WeatherCatV1.21B27,2013-10-11 01:25:00,
2013-10-10 21:26:00,58.9,56.9,30.21,East,92,4.0,5.0,93,0.00,,,0.00,WeatherCatV1.21B27,2013-10-11 01:26:00,
2013-10-10 21:28:00,58.9,56.9,30.21,SE,146,4.0,7.0,93,0.00,,,0.00,WeatherCatV1.21B27,2013-10-11 01:28:00,
2013-10-10 21:29:00,58.9,56.9,30.21,ESE,113,5.0,11.0,93,0.00,,,0.00,WeatherCatV1.21B27,2013-10-11 01:29:00,
2013-10-10 21:30:00,58.9,56.9,30.21,SE,130,0.0,5.0,93,0.00,,,0.00,WeatherCatV1.21B27,2013-10-11 01:30:00,
2013-10-10 21:31:00,58.9,56.9,30.21,SE,130,4.0,5.0,93,0.00,,,0.00,WeatherCatV1.21B27,2013-10-11 01:31:00,
2013-10-10 21:32:00,58.9,56.9,30.21,East,99,6.0,6.0,93,0.00,,,0.00,WeatherCatV1.21B27,2013-10-11 01:32:00,
2013-10-10 21:33:00,58.9,56.9,30.22,ESE,104,7.0,11.0,93,0.00,,,0.00,WeatherCatV1.21B27,2013-10-11 01:33:00,
2013-10-10 21:34:00,58.9,56.9,30.22,East,94,2.0,11.0,93,0.00,,,0.00,WeatherCatV1.21B27,2013-10-11 01:34:00,
2013-10-10 21:35:00,59.0,57.0,30.22,ESE,109,4.0,6.0,93,0.00,,,0.00,WeatherCatV1.21B27,2013-10-11 01:35:00,
2013-10-10 21:36:00,59.0,57.0,30.22,East,98,0.0,6.0,93,0.00,,,0.00,WeatherCatV1.21B27,2013-10-11 01:36:00,
2013-10-10 21:37:00,59.0,57.0,30.22,SE,128,0.0,4.0,93,0.00,,,0.00,WeatherCatV1.21B27,2013-10-11 01:37:00,
2013-10-10 21:38:00,59.0,57.0,30.22,SSE,147,11.0,13.0,93,0.00,,,0.00,WeatherCatV1.21B27,2013-10-11 01:38:00,
2013-10-10 21:39:00,59.0,57.0,30.22,ESE,121,1.0,13.0,93,0.00,,,0.00,WeatherCatV1.21B27,2013-10-11 01:39:00,
2013-10-10 21:40:00,59.0,57.0,30.22,East,92,5.0,6.0,93,0.00,,,0.00,WeatherCatV1.21B27,2013-10-11 01:40:00,
2013-10-10 21:41:00,59.0,57.0,30.22,East,96,4.0,6.0,93,0.00,,,0.00,WeatherCatV1.21B27,2013-10-11 01:41:00,
2013-10-10 21:42:00,59.0,57.0,30.22,ESE,109,1.0,6.0,93,0.00,,,0.00,WeatherCatV1.21B27,2013-10-11 01:42:00,
2013-10-10 21:43:00,59.0,57.0,30.22,ESE,113,4.0,6.0,93,0.00,,,0.00,WeatherCatV1.21B27,2013-10-11 01:43:00,
2013-10-10 21:44:00,59.0,57.0,30.22,ESE,102,2.0,6.0,93,0.00,,,0.00,WeatherCatV1.21B27,2013-10-11 01:44:00,
2013-10-10 21:45:00,59.0,57.0,30.22,ESE,121,5.0,7.0,93,0.00,,,0.00,WeatherCatV1.21B27,2013-10-11 01:45:00,
2013-10-10 21:46:00,59.0,57.0,30.22,East,90,0.0,7.0,93,0.00,,,0.00,WeatherCatV1.21B27,2013-10-11 01:46:00,
2013-10-10 21:47:00,59.0,57.0,30.22,East,97,5.0,6.0,93,0.00,,,0.00,WeatherCatV1.21B27,2013-10-11 01:47:00,
2013-10-10 21:48:00,59.0,57.0,30.22,SE,130,5.0,6.0,93,0.00,,,0.00,WeatherCatV1.21B27,2013-10-11 01:48:00,
2013-10-10 21:49:00,59.0,57.0,30.22,East,90,0.0,6.0,93,0.00,,,0.00,WeatherCatV1.21B27,2013-10-11 01:49:00,
2013-10-10 21:50:00,59.0,57.0,30.22,East,90,0.0,6.0,93,0.00,,,0.00,WeatherCatV1.21B27,2013-10-11 01:50:00,
2013-10-10 21:52:00,59.0,57.0,30.22,East,91,4.0,4.0,93,0.00,,,0.00,WeatherCatV1.21B27,2013-10-11 01:52:00,
2013-10-10 21:53:00,59.0,57.0,30.21,NE,56,2.0,7.0,93,0.00,,,0.00,WeatherCatV1.21B27,2013-10-11 01:53:00,
2013-10-10 21:54:00,59.0,57.0,30.22,ESE,109,4.0,8.0,93,0.00,,,0.00,WeatherCatV1.21B27,2013-10-11 01:54:00,
2013-10-10 21:55:00,59.0,57.0,30.22,ESE,115,2.0,12.0,93,0.00,,,0.00,WeatherCatV1.21B27,2013-10-11 01:55:00,
2013-10-10 21:56:00,59.0,57.0,30.22,ESE,110,1.0,12.0,93,0.00,,,0.00,WeatherCatV1.21B27,2013-10-11 01:56:00,
2013-10-10 21:57:00,59.0,57.0,30.22,East,101,0.0,4.0,93,0.00,,,0.00,WeatherCatV1.21B27,2013-10-11 01:57:00,
2013-10-10 21:58:00,59.0,57.0,30.22,East,89,6.0,11.0,93,0.00,,,0.00,WeatherCatV1.21B27,2013-10-11 01:58:00,
2013-10-10 21:59:00,59.0,57.0,30.22,ESE,102,8.0,11.0,93,0.00,,,0.00,WeatherCatV1.21B27,2013-10-11 01:59:00,
2013-10-10 22:01:00,59.0,57.0,30.22,East,101,5.0,7.0,93,0.00,,,0.00,WeatherCatV1.21B27,2013-10-11 02:01:00,
2013-10-10 22:02:00,59.0,57.0,30.22,NNE,32,6.0,7.0,93,0.00,,,0.00,WeatherCatV1.21B27,2013-10-11 02:02:00,
2013-10-10 22:03:00,59.0,57.0,30.22,SE,141,9.0,10.0,93,0.00,,,0.00,WeatherCatV1.21B27,2013-10-11 02:03:00,
2013-10-10 22:04:00,59.0,57.0,30.22,ESE,122,2.0,10.0,93,0.00,,,0.00,WeatherCatV1.21B27,2013-10-11 02:04:00,
2013-10-10 22:06:00,59.0,57.0,30.22,ESE,107,1.0,8.0,93,0.00,,,0.00,WeatherCatV1.21B27,2013-10-11 02:06:00,
2013-10-10 22:07:00,59.0,57.0,30.22,East,100,5.0,12.0,93,0.00,,,0.00,WeatherCatV1.21B27,2013-10-11 02:07:00,
2013-10-10 22:08:00,59.0,57.0,30.22,East,89,5.0,12.0,93,0.00,,,0.00,WeatherCatV1.21B27,2013-10-11 02:08:00,
2013-10-10 22:09:00,59.0,57.0,30.22,SE,127,0.0,9.0,93,0.00,,,0.00,WeatherCatV1.21B27,2013-10-11 02:09:00,
2013-10-10 22:10:00,59.0,57.0,30.22,East,85,4.0,5.0,93,0.00,,,0.00,WeatherCatV1.21B27,2013-10-11 02:10:00,
2013-10-10 22:11:00,59.0,57.0,30.22,East,80,3.0,7.0,93,0.00,,,0.00,WeatherCatV1.21B27,2013-10-11 02:11:00,
2013-10-10 22:12:00,59.0,57.0,30.22,East,86,6.0,7.0,93,0.00,,,0.00,WeatherCatV1.21B27,2013-10-11 02:12:00,
2013-10-10 22:14:00,59.1,57.1,30.22,SE,129,0.0,8.0,93,0.00,,,0.00,WeatherCatV1.21B27,2013-10-11 02:14:00,
2013-10-10 22:15:00,59.1,57.1,30.22,SE,134,4.0,8.0,93,0.00,,,0.00,WeatherCatV1.21B27,2013-10-11 02:15:00,
2013-10-10 22:16:00,59.1,57.1,30.22,East,87,3.0,9.0,93,0.00,,,0.00,WeatherCatV1.21B27,2013-10-11 02:16:00,
2013-10-10 22:17:00,59.1,57.1,30.22,ENE,77,3.0,9.0,93,0.00,,,0.00,WeatherCatV1.21B27,2013-10-11 02:17:00,
2013-10-10 22:19:00,59.1,57.1,30.22,ESE,113,1.0,5.0,93,0.00,,,0.00,WeatherCatV1.21B27,2013-10-11 02:19:00,
2013-10-10 22:20:00,59.0,57.0,30.22,ENE,70,0.0,7.0,93,0.00,,,0.00,WeatherCatV1.21B27,2013-10-11 02:20:00,
2013-10-10 22:21:00,59.1,57.1,30.22,SSE,161,4.0,7.0,93,0.00,,,0.00,WeatherCatV1.21B27,2013-10-11 02:21:00,
2013-10-10 22:22:00,59.1,57.1,30.22,ENE,76,3.0,8.0,93,0.00,,,0.00,WeatherCatV1.21B27,2013-10-11 02:22:00,
2013-10-10 22:24:00,59.1,57.1,30.22,East,99,2.0,5.0,93,0.00,,,0.00,WeatherCatV1.21B27,2013-10-11 02:24:00,
2013-10-10 22:25:00,59.1,57.1,30.22,East,88,7.0,7.0,93,0.00,,,0.00,WeatherCatV1.21B27,2013-10-11 02:25:00,
2013-10-10 22:27:00,59.1,57.1,30.22,East,94,0.0,7.0,93,0.00,,,0.00,WeatherCatV1.21B27,2013-10-11 02:27:00,
2013-10-10 22:29:00,59.1,57.1,30.21,East,98,1.0,6.0,93,0.00,,,0.00,WeatherCatV1.21B27,2013-10-11 02:29:00,
2013-10-10 22:30:00,59.1,57.1,30.21,SSE,149,4.0,9.0,93,0.00,,,0.00,WeatherCatV1.21B27,2013-10-11 02:30:00,
2013-10-10 22:32:00,59.1,57.1,30.21,East,95,7.0,11.0,93,0.00,,,0.00,WeatherCatV1.21B27,2013-10-11 02:32:00,
2013-10-10 22:33:00,59.1,57.1,30.21,East,91,2.0,11.0,93,0.00,,,0.00,WeatherCatV1.21B27,2013-10-11 02:33:00,
2013-10-10 22:34:00,59.1,57.1,30.21,South,185,2.0,11.0,93,0.00,,,0.00,WeatherCatV1.21B27,2013-10-11 02:34:00,
2013-10-10 22:35:00,59.1,57.1,30.21,SSE,152,0.0,11.0,93,0.00,,,0.00,WeatherCatV1.21B27,2013-10-11 02:35:00,
2013-10-10 22:37:00,59.1,57.1,30.21,SE,127,1.0,6.0,93,0.00,,,0.00,WeatherCatV1.21B27,2013-10-11 02:37:00,
2013-10-10 22:38:00,59.1,57.1,30.21,NNE,15,3.0,7.0,93,0.00,,,0.00,WeatherCatV1.21B27,2013-10-11 02:38:00,
2013-10-10 22:39:00,59.0,57.0,30.21,NE,55,3.0,8.0,93,0.00,,,0.00,WeatherCatV1.21B27,2013-10-11 02:39:00,
2013-10-10 22:41:00,59.0,57.0,30.21,SE,145,2.0,9.0,93,0.00,,,0.00,WeatherCatV1.21B27,2013-10-11 02:41:00,
2013-10-10 22:42:00,59.0,57.0,30.21,SSE,151,2.0,4.0,93,0.00,,,0.00,WeatherCatV1.21B27,2013-10-11 02:42:00,
2013-10-10 22:43:00,59.0,57.0,30.21,SSE,151,2.0,4.0,93,0.00,,,0.00,WeatherCatV1.21B27,2013-10-11 02:43:00,
2013-10-10 22:45:00,59.0,57.0,30.21,NE,49,2.0,8.0,93,0.00,,,0.00,WeatherCatV1.21B27,2013-10-11 02:45:00,
2013-10-10 22:46:00,59.0,57.0,30.21,NE,40,8.0,8.0,93,0.00,,,0.00,WeatherCatV1.21B27,2013-10-11 02:46:00,
2013-10-10 22:48:00,59.0,57.0,30.21,SE,135,2.0,7.0,93,0.00,,,0.00,WeatherCatV1.21B27,2013-10-11 02:48:00,
2013-10-10 22:50:00,59.0,57.0,30.21,ENE,72,4.0,5.0,93,0.00,,,0.00,WeatherCatV1.21B27,2013-10-11 02:50:00,
2013-10-10 22:51:00,59.0,57.0,30.21,SE,138,0.0,6.0,93,0.00,,,0.00,WeatherCatV1.21B27,2013-10-11 02:51:00,
2013-10-10 22:53:00,59.0,57.0,30.21,ESE,103,7.0,11.0,93,0.00,,,0.00,WeatherCatV1.21B27,2013-10-11 02:53:00,
2013-10-10 22:55:00,59.0,57.0,30.21,ENE,62,0.0,6.0,93,0.00,,,0.00,WeatherCatV1.21B27,2013-10-11 02:55:00,
2013-10-10 22:56:00,59.0,57.3,30.21,ENE,76,4.0,9.0,94,0.00,,,0.00,WeatherCatV1.21B27,2013-10-11 02:56:00,
2013-10-10 22:58:00,59.0,57.3,30.21,East,96,4.0,8.0,94,0.00,,,0.00,WeatherCatV1.21B27,2013-10-11 02:58:00,
2013-10-10 22:59:00,59.0,57.3,30.21,NE,56,3.0,9.0,94,0.00,,,0.00,WeatherCatV1.21B27,2013-10-11 02:59:00,
2013-10-10 23:01:00,59.0,57.3,30.21,East,84,2.0,11.0,94,0.00,,,0.00,WeatherCatV1.21B27,2013-10-11 03:01:00,
2013-10-10 23:02:00,59.0,57.3,30.21,SE,146,5.0,11.0,94,0.00,,,0.00,WeatherCatV1.21B27,2013-10-11 03:02:00,
2013-10-10 23:03:00,59.0,57.3,30.21,East,79,2.0,7.0,94,0.00,,,0.00,WeatherCatV1.21B27,2013-10-11 03:03:00,
2013-10-10 23:04:00,59.0,57.3,30.21,East,96,1.0,7.0,94,0.00,,,0.00,WeatherCatV1.21B27,2013-10-11 03:04:00,
2013-10-10 23:06:00,59.0,57.3,30.21,SE,136,2.0,6.0,94,0.00,,,0.00,WeatherCatV1.21B27,2013-10-11 03:06:00,
2013-10-10 23:07:00,59.0,57.3,30.21,East,88,2.0,6.0,94,0.00,,,0.00,WeatherCatV1.21B27,2013-10-11 03:07:00,
2013-10-10 23:08:00,59.0,57.0,30.20,SE,130,4.0,9.0,93,0.00,,,0.00,WeatherCatV1.21B27,2013-10-11 03:08:00,
2013-10-10 23:09:00,59.0,57.3,30.21,ENE,74,7.0,9.0,94,0.00,,,0.00,WeatherCatV1.21B27,2013-10-11 03:09:00,
2013-10-10 23:11:00,59.0,57.3,30.21,East,98,5.0,13.0,94,0.00,,,0.00,WeatherCatV1.21B27,2013-10-11 03:11:00,
2013-10-10 23:12:00,59.0,57.3,30.21,ESE,117,2.0,7.0,94,0.00,,,0.00,WeatherCatV1.21B27,2013-10-11 03:12:00,
2013-10-10 23:13:00,59.0,57.0,30.21,East,100,6.0,7.0,93,0.00,,,0.00,WeatherCatV1.21B27,2013-10-11 03:13:00,
2013-10-10 23:14:00,59.0,57.3,30.20,ESE,118,2.0,10.0,94,0.00,,,0.00,WeatherCatV1.21B27,2013-10-11 03:14:00,
2013-10-10 23:17:00,59.1,57.4,30.20,East,79,2.0,5.0,94,0.00,,,0.00,WeatherCatV1.21B27,2013-10-11 03:17:00,
2013-10-10 23:18:00,59.0,57.3,30.20,East,85,1.0,6.0,94,0.00,,,0.00,WeatherCatV1.21B27,2013-10-11 03:18:00,
2013-10-10 23:19:00,59.0,57.3,30.20,East,85,1.0,6.0,94,0.00,,,0.00,WeatherCatV1.21B27,2013-10-11 03:19:00,
2013-10-10 23:20:00,59.1,57.4,30.20,SE,138,2.0,5.0,94,0.00,,,0.00,WeatherCatV1.21B27,2013-10-11 03:20:00,
2013-10-10 23:22:00,59.0,57.3,30.20,SE,134,8.0,9.0,94,0.00,,,0.00,WeatherCatV1.21B27,2013-10-11 03:22:00,
2013-10-10 23:23:00,59.0,57.3,30.20,SE,144,9.0,9.0,94,0.00,,,0.00,WeatherCatV1.21B27,2013-10-11 03:23:00,
2013-10-10 23:24:00,59.0,57.3,30.20,SSE,157,5.0,8.0,94,0.00,,,0.00,WeatherCatV1.21B27,2013-10-11 03:24:00,
2013-10-10 23:25:00,59.0,57.3,30.20,SE,130,1.0,8.0,94,0.00,,,0.00,WeatherCatV1.21B27,2013-10-11 03:25:00,
2013-10-10 23:28:00,59.0,57.3,30.19,ESE,113,2.0,7.0,94,0.00,,,0.00,WeatherCatV1.21B27,2013-10-11 03:28:00,
2013-10-10 23:29:00,59.0,57.3,30.19,East,86,6.0,7.0,94,0.00,,,0.00,WeatherCatV1.21B27,2013-10-11 03:29:00,
2013-10-10 23:30:00,59.1,57.4,30.19,SE,146,5.0,7.0,94,0.00,,,0.00,WeatherCatV1.21B27,2013-10-11 03:30:00,
2013-10-10 23:33:00,59.0,57.3,30.19,East,99,5.0,6.0,94,0.00,,,0.00,WeatherCatV1.21B27,2013-10-11 03:33:00,
2013-10-10 23:34:00,59.0,57.3,30.19,ESE,111,1.0,6.0,94,0.00,,,0.00,WeatherCatV1.21B27,2013-10-11 03:34:00,
2013-10-10 23:36:00,59.1,57.4,30.19,ENE,68,3.0,5.0,94,0.00,,,0.00,WeatherCatV1.21B27,2013-10-11 03:36:00,
2013-10-10 23:38:00,59.0,57.3,30.19,ESE,113,2.0,8.0,94,0.00,,,0.00,WeatherCatV1.21B27,2013-10-11 03:38:00,
2013-10-10 23:39:00,59.1,57.4,30.19,ESE,109,4.0,8.0,94,0.00,,,0.00,WeatherCatV1.21B27,2013-10-11 03:39:00,
2013-10-10 23:41:00,59.0,57.3,30.19,ESE,117,0.0,2.0,94,0.00,,,0.00,WeatherCatV1.21B27,2013-10-11 03:41:00,
2013-10-10 23:44:00,59.0,57.3,30.19,ESE,115,5.0,9.0,94,0.00,,,0.00,WeatherCatV1.21B27,2013-10-11 03:44:00,
2013-10-10 23:45:00,59.0,57.3,30.19,East,98,4.0,9.0,94,0.00,,,0.00,WeatherCatV1.21B27,2013-10-11 03:45:00,
2013-10-10 23:46:00,59.0,57.3,30.18,East,91,6.0,9.0,94,0.00,,,0.00,WeatherCatV1.21B27,2013-10-11 03:46:00,
2013-10-10 23:49:00,59.0,57.3,30.18,SE,125,6.0,7.0,94,0.00,,,0.00,WeatherCatV1.21B27,2013-10-11 03:49:00,
2013-10-10 23:50:00,59.0,57.3,30.18,SE,132,1.0,7.0,94,0.00,,,0.00,WeatherCatV1.21B27,2013-10-11 03:50:00,
2013-10-10 23:51:00,59.0,57.3,30.18,ENE,61,0.0,7.0,94,0.00,,,0.00,WeatherCatV1.21B27,2013-10-11 03:51:00,
2013-10-10 23:54:00,59.0,57.3,30.18,ESE,117,0.0,5.0,94,0.00,,,0.00,WeatherCatV1.21B27,2013-10-11 03:54:00,
2013-10-10 23:55:00,59.0,57.3,30.18,East,95,6.0,7.0,94,0.00,,,0.00,WeatherCatV1.21B27,2013-10-11 03:55:00,
2013-10-10 23:56:00,59.0,57.3,30.18,East,91,8.0,8.0,94,0.00,,,0.00,WeatherCatV1.21B27,2013-10-11 03:56:00,
2013-10-10 23:59:00,59.0,57.3,30.18,ENE,77,3.0,6.0,94,0.00,,,0.00,WeatherCatV1.21B27,2013-10-11 03:59:00,